GFSFLT1_850_spd_000.txt.gz
Wind_Speed
18 16 15 14 15 14 12 11 10 10 8 6 4 3 2 3 4 4 8 6 10 11 10 13 11 10 12 14 13 13 15 17
17 17 18 17 17 16 15 13 12 9 6 5 4 3 3 1 0 9 6 3 5 7 8 8 10 9 10 11 12 13 12 15
17 19 19 22 20 19 14 13 13 12 9 8 9 8 6 5 4 4 3 6 6 7 9 10 11 12 12 12 13 13 13 13
12 17 21 22 23 20 18 15 15 15 16 12 9 9 9 7 7 6 9 9 9 10 11 12 12 13 13 15 14 15 17 14
8 10 16 21 22 22 21 19 18 18 21 15 15 12 12 12 12 11 13 13 14 14 14 15 15 16 17 18 18 19 19 20
11 10 12 16 20 22 24 22 21 20 20 20 15 14 14 13 13 15 13 16 19 20 16 15 18 19 21 21 22 22 23 25
15 17 14 13 18 24 26 26 23 22 22 23 22 20 17 16 13 12 12 11 13 14 14 16 18 19 22 24 25 27 28 29
16 15 13 14 18 24 27 27 24 22 26 27 25 23 17 14 11 11 13 11 12 15 17 20 22 23 24 26 27 29 31 33
18 16 15 16 19 22 24 24 26 24 28 26 23 20 13 10 15 16 17 16 20 23 27 30 30 30 30 30 31 32 33 35
18 16 18 18 21 25 27 27 25 25 25 23 21 19 17 16 17 18 17 20 21 23 31 33 33 31 31 29 29 31 31 34
22 21 22 22 24 23 25 30 29 27 25 22 18 17 16 16 18 21 23 26 27 30 31 28 26 27 28 28 30 31 32 34
27 25 23 23 23 25 27 28 26 23 20 17 15 13 15 18 20 21 23 26 28 26 25 25 27 28 27 28 30 31 31 33
26 27 28 22 22 22 23 20 18 16 13 12 12 15 16 18 18 22 24 24 25 25 25 26 28 28 28 29 30 31 32 33
30 36 30 22 20 18 15 15 14 11 11 12 16 17 15 15 17 21 23 24 24 25 26 28 29 29 29 30 31 32 34 36
36 39 29 21 17 13 13 12 9 10 14 16 14 12 17 19 23 27 28 28 28 28 29 30 30 31 31 31 32 33 35 38
37 34 29 20 15 13 12 8 10 13 16 14 12 16 21 24 27 31 30 29 29 29 31 32 31 31 31 30 31 32 35 34
34 32 28 19 17 14 9 14 12 14 17 14 14 20 21 26 31 30 28 28 29 29 31 31 33 32 33 37 36 33 31 32
33 31 25 15 14 11 9 14 13 15 17 13 18 20 25 30 30 28 28 30 31 31 31 31 33 33 35 34 31 32 33 32
28 23 14 11 13 14 16 10 14 16 11 16 18 23 28 30 27 27 28 29 31 31 31 32 34 34 35 32 32 33 33 35

GFSFLT1_850_spd_003.txt.gz
Wind_Speed
18 18 16 14 14 13 13 12 12 11 10 11 9 9 8 6 6 6 2 3 2 1 4 6 7 6 6 8 10 10 12 13
14 16 18 17 16 15 15 15 15 13 12 11 10 11 10 10 9 7 6 5 4 3 4 7 8 8 10 10 10 11 11 12
10 17 19 20 19 19 18 17 17 16 14 14 14 14 14 12 11 12 9 9 7 7 8 8 9 11 12 11 12 13 13 13
6 11 16 18 20 20 20 20 19 18 17 16 16 14 15 14 14 14 15 12 11 11 11 11 12 12 13 15 15 16 17 17
6 8 11 16 19 19 20 21 21 21 20 20 19 19 19 17 16 15 14 13 13 13 13 14 15 15 17 18 18 20 21 23
11 12 14 14 16 19 20 22 23 24 23 25 24 25 22 18 16 16 15 14 13 13 13 14 15 16 19 22 25 26 26 27
14 15 16 15 14 16 18 21 24 25 26 27 28 28 24 19 17 15 15 14 14 13 14 14 15 16 20 23 26 28 29 30
15 17 18 17 16 17 18 21 26 28 29 30 28 26 23 20 17 14 14 17 13 13 14 18 20 21 23 24 28 31 31 33
19 19 19 18 19 20 22 25 28 28 29 30 27 24 21 16 14 16 22 14 13 14 18 18 21 22 23 25 28 31 31 33
19 20 20 20 21 24 26 29 30 30 28 27 26 22 20 18 17 14 14 11 13 16 18 22 22 23 24 25 28 29 30 33
21 20 20 21 24 27 27 29 29 27 26 25 21 18 18 19 16 21 16 15 16 19 22 24 25 25 25 26 29 29 31 33
21 23 25 29 31 29 26 25 22 22 21 21 17 16 14 16 16 11 13 19 20 23 25 25 25 26 26 28 29 32 33 34
22 25 32 32 32 26 24 21 18 16 16 16 16 14 13 12 14 16 17 18 22 23 25 27 28 28 28 30 32 33 34 35
28 29 34 32 33 25 22 18 15 14 14 14 12 10 13 17 17 17 18 20 22 25 26 28 29 30 30 31 32 34 34 36
34 34 30 37 33 28 21 16 14 14 13 12 12 14 15 16 16 16 18 21 24 26 27 28 29 30 31 31 32 33 34 36
34 27 35 39 30 25 18 15 14 14 13 14 16 15 16 15 16 18 21 23 25 26 28 29 29 30 31 30 31 32 34 38
35 31 39 32 27 23 16 15 15 17 18 16 14 15 15 15 17 20 23 25 25 27 28 29 30 30 31 35 39 36 38 39
33 37 35 28 25 17 16 16 17 14 12 13 13 13 14 16 19 23 24 25 26 28 29 28 29 30 33 36 40 39 38 37
36 37 28 22 18 15 16 13 11 11 12 12 12 13 15 18 21 23 25 26 26 27 28 28 30 31 35 36 34 34 36 36

GFSFLT1_850_spd_006.txt.gz
Wind_Speed
19 19 16 17 15 16 15 16 15 16 14 14 16 16 10 17 15 13 14 10 9 7 5 10 10 6 9 14 15 13 12 14
7 11 14 16 15 17 17 16 17 19 16 17 15 16 15 16 13 16 14 12 12 9 5 7 5 6 9 12 13 15 16 14
4 1 9 15 16 17 19 18 18 20 18 17 16 17 17 21 18 21 23 17 17 12 9 9 8 11 12 11 13 16 17 17
5 5 8 13 17 18 19 20 20 21 24 20 21 22 26 20 21 21 19 23 20 17 15 14 13 12 11 13 16 19 20 19
6 5 8 10 16 20 22 20 22 23 25 27 25 25 24 24 21 25 28 25 19 16 16 16 15 14 14 15 15 17 21 26
9 11 11 15 14 15 19 22 21 24 26 28 31 33 31 28 25 22 21 19 19 15 15 17 22 19 19 22 23 26 27 26
10 13 14 14 17 16 19 23 24 25 27 30 34 34 35 28 27 26 24 22 20 17 17 20 21 21 23 22 25 25 28 32
9 15 17 16 16 18 20 23 27 28 29 32 34 38 34 35 32 29 26 23 21 22 19 20 24 25 25 27 28 30 31 34
18 16 13 15 14 17 20 26 29 30 31 33 34 35 36 30 28 23 23 23 21 22 21 21 22 27 29 28 30 30 30 31
15 14 15 16 16 19 24 31 32 31 35 35 33 29 30 30 23 21 22 16 10 11 15 18 29 27 27 28 31 31 30 31
18 16 15 19 25 27 28 30 29 34 32 28 25 27 26 24 19 18 13 16 20 16 20 25 26 28 30 30 31 32 32 33
14 13 16 18 25 24 31 33 30 31 30 28 26 25 21 19 20 15 20 15 19 21 25 27 28 29 31 31 32 33 34 35
19 24 24 23 21 28 42 32 30 27 25 22 23 19 17 16 13 12 17 17 20 23 24 26 29 31 32 32 34 34 35 36
28 32 21 22 30 45 36 30 26 22 17 14 14 14 12 12 16 20 23 16 23 23 25 29 32 33 33 33 34 35 37 37
30 24 26 26 38 38 29 28 25 19 13 11 11 11 12 15 18 15 16 21 21 26 30 32 33 33 32 32 33 35 36 35
27 35 34 33 34 31 25 26 21 15 12 12 13 15 19 19 15 14 19 23 28 29 32 31 31 31 32 31 31 35 37 41
33 31 36 37 32 27 22 20 15 13 13 16 21 14 12 13 15 18 25 27 27 30 29 31 31 31 30 32 35 38 41 43
30 34 37 31 26 21 23 17 15 17 19 20 11 10 10 14 17 22 24 28 27 29 31 29 30 31 31 33 36 41 44 44
38 37 31 26 27 29 33 26 15 18 13 10 7 9 12 16 20 23 25 27 29 31 29 29 32 35 38 40 32 26 30 32

GFSFLT1_850_spd_012.txt.gz
Wind_Speed
23 20 20 17 12 10 11 14 17 18 19 22 22 22 23 23 25 26 26 24 20 21 21 20 17 16 16 15 13 13 14 15
7 17 19 17 12 9 12 14 15 17 19 21 22 24 23 25 26 28 26 25 26 25 22 21 21 20 17 15 15 15 14 14
14 13 10 7 5 7 9 12 14 15 18 20 22 24 25 26 25 25 27 29 29 28 27 28 24 22 20 19 18 18 15 13
10 6 2 4 5 7 8 9 12 14 17 19 22 26 30 32 32 31 31 30 34 33 32 31 29 27 25 24 23 22 18 17
7 4 4 4 4 6 8 9 13 15 17 21 24 27 31 33 35 34 32 35 32 32 31 31 29 27 25 24 23 21 19 20
6 5 3 4 8 9 9 11 13 14 18 22 28 31 34 34 35 36 36 36 35 31 30 33 31 29 26 22 18 17 20 15
4 4 8 9 7 8 11 11 9 12 18 22 28 31 35 38 39 40 39 41 40 38 32 36 34 31 31 30 28 25 21 23
7 7 7 6 7 8 7 9 15 19 26 28 33 34 36 35 35 37 39 43 40 38 31 32 33 31 32 29 25 23 25 27
1 0 2 3 2 6 12 16 22 24 26 33 38 39 33 32 34 34 35 35 29 30 30 29 26 20 24 27 26 29 32 23
13 12 10 6 10 14 17 21 27 32 39 41 33 31 33 34 32 29 27 29 31 29 30 25 30 34 30 31 23 17 18 24
9 9 3 6 12 19 27 33 37 38 33 28 29 31 31 28 23 14 18 26 26 21 19 16 23 26 16 16 17 22 27 30
11 11 13 20 26 29 33 36 32 33 29 29 30 29 29 27 20 19 18 19 16 22 22 19 17 12 13 18 24 27 30 33
13 19 24 29 31 33 33 34 31 31 32 35 29 24 22 16 13 12 13 15 18 13 13 12 13 16 19 23 28 30 33 35
20 27 30 31 35 31 35 31 28 30 33 29 26 21 15 13 13 13 14 13 10 11 12 16 18 21 27 29 30 33 33 35
25 31 34 32 33 33 31 30 28 33 34 25 14 11 11 11 11 10 10 9 7 13 16 20 24 27 29 32 32 33 36 33
27 32 35 33 33 31 32 27 32 37 31 25 19 16 15 12 9 9 10 17 16 15 22 25 26 29 30 32 34 34 34 38
35 32 34 32 31 29 26 30 34 36 29 21 21 18 16 17 15 13 12 12 13 19 24 26 28 32 32 29 30 33 38 43
39 33 32 31 31 27 32 32 31 18 14 14 15 13 12 12 7 4 8 13 19 24 26 29 32 28 29 31 35 34 37 35
35 33 31 32 29 32 32 24 10 11 9 8 7 6 7 4 6 10 17 21 24 27 30 29 30 32 32 31 34 35 33 31

GFSFLT1_850_spd_015.txt.gz
Wind_Speed
20 21 23 23 19 14 10 10 11 11 11 13 15 18 19 19 19 20 22 24 26 24 22 22 22 23 24 23 21 21 20 18
11 21 20 19 17 12 8 8 8 10 10 12 15 19 22 24 22 22 22 23 26 27 27 27 26 26 25 25 23 24 23 21
5 5 8 9 6 6 7 9 11 11 12 12 16 20 23 27 28 28 29 28 28 29 32 32 33 32 31 30 30 28 27 23
12 9 6 5 5 5 8 12 13 14 15 16 17 20 24 28 30 32 32 34 35 34 35 36 38 38 37 35 33 31 29 27
9 7 5 9 10 10 12 14 15 15 17 18 21 25 31 31 33 35 36 36 39 40 40 39 41 41 40 36 32 32 32 30
6 8 9 8 7 10 12 14 14 15 14 16 23 30 31 34 35 38 38 40 41 42 41 41 42 41 36 34 35 34 33 29
7 6 7 9 11 12 13 12 10 11 19 25 31 32 36 41 43 43 37 36 34 34 36 40 42 41 36 35 32 28 25 25
11 11 11 10 8 6 7 10 14 20 25 27 35 37 42 43 38 32 33 35 36 38 34 39 40 38 39 37 30 25 21 24
6 2 2 2 4 9 13 18 23 27 33 37 37 34 33 32 32 32 32 31 32 30 23 28 31 30 25 20 20 22 28 25
8 4 4 6 11 17 22 27 31 33 31 30 29 29 31 31 30 30 31 28 25 23 23 25 22 17 18 20 25 21 19 15
9 8 10 15 24 23 27 28 29 30 29 29 32 36 33 26 26 28 27 24 21 23 24 21 21 21 26 21 16 11 16 20
15 21 22 27 28 27 26 28 30 29 27 30 35 37 29 27 26 26 26 18 18 14 16 22 22 8 9 11 14 17 21 24
25 24 26 28 30 29 31 29 33 32 30 34 41 36 28 28 22 17 15 13 16 21 19 11 8 10 14 17 20 25 26 28
30 26 27 27 31 28 31 31 34 32 34 40 42 37 24 18 15 14 14 12 9 11 10 11 12 14 19 22 25 28 30 31
26 25 31 31 30 31 32 33 33 36 40 40 35 27 21 16 14 10 7 8 9 8 15 15 18 22 23 26 30 31 34 34
22 28 34 32 31 34 35 33 33 38 38 36 24 19 16 14 16 15 13 11 16 15 18 20 23 26 29 30 32 30 30 33
27 31 32 35 33 34 33 31 35 35 27 20 16 15 14 8 10 17 18 9 11 15 19 23 27 29 30 28 29 32 35 37
28 34 38 35 34 34 30 32 31 20 14 13 10 8 8 9 10 12 12 13 16 19 22 26 30 29 30 30 30 31 35 36
31 34 36 37 35 31 32 30 25 18 15 13 13 12 11 10 13 17 17 18 20 24 27 28 29 30 29 31 33 33 33 33

GFSFLT1_850_spd_018.txt.gz
Wind_Speed
21 19 21 19 21 17 13 10 7 9 8 8 9 11 12 15 17 21 22 23 24 25 25 24 23 24 23 24 24 23 22 22
16 19 19 14 17 16 12 8 7 10 10 10 11 13 15 17 20 22 22 25 29 30 31 30 30 30 28 27 27 27 27 26
10 10 6 3 6 8 9 9 11 13 13 14 17 20 22 24 26 28 28 28 29 33 36 38 38 37 36 34 34 35 32 31
9 8 6 3 4 6 7 9 12 16 17 19 21 24 26 27 29 30 29 33 35 36 38 41 43 43 43 42 41 41 39 36
3 0 2 4 6 8 11 14 16 16 16 16 18 21 26 31 33 33 34 34 36 37 38 38 40 46 49 48 47 44 41 39
6 7 7 8 10 11 13 11 8 8 9 13 21 28 32 35 39 41 42 37 30 29 30 31 32 37 45 52 49 43 42 40
9 8 7 6 7 7 7 8 11 13 17 23 28 34 38 41 41 38 36 35 36 36 35 35 35 34 38 41 41 39 37 35
8 8 6 5 6 8 11 15 19 24 29 32 34 34 33 34 35 36 37 35 35 35 33 31 30 29 29 26 27 26 23 23
12 11 11 11 13 18 22 26 29 31 31 30 28 28 30 34 37 35 32 31 34 31 29 24 21 20 19 16 15 16 16 17
14 13 16 22 24 26 27 27 27 26 27 26 27 30 35 39 36 32 27 28 31 28 22 15 14 13 13 14 15 22 15 12
16 22 22 19 21 23 24 24 25 26 29 30 33 38 41 39 37 27 24 27 27 20 15 12 11 14 19 24 24 14 15 14
21 24 22 20 24 25 26 26 30 32 34 34 38 40 42 41 31 24 23 19 14 8 8 13 20 22 11 8 11 12 14 17
25 27 27 23 31 29 30 31 34 33 35 36 41 41 44 33 24 17 9 6 8 9 13 10 9 10 11 14 16 19 21 23
26 30 26 26 29 30 30 30 34 34 33 38 42 42 34 24 15 9 8 10 15 16 19 14 14 16 16 19 21 23 26 28
26 26 26 28 30 31 32 33 34 32 33 37 37 32 25 16 11 12 13 14 13 15 16 17 17 17 20 23 25 28 31 31
22 24 25 27 31 35 35 34 31 31 35 33 25 21 19 18 16 15 13 17 16 12 15 17 20 24 27 29 30 30 31 33
26 26 28 32 37 37 35 31 33 32 35 24 18 17 14 12 13 15 15 16 18 18 18 19 24 27 29 29 29 30 31 33
24 28 33 35 36 37 36 36 31 32 27 23 17 13 13 13 15 15 18 20 18 19 22 26 28 28 28 29 30 32 32 31
26 29 34 40 42 40 36 30 28 29 23 17 15 15 16 17 19 19 20 20 23 25 25 26 27 27 29 31 30 29 28 29

GFSFLT1_850_spd_021.txt.gz
Wind_Speed
19 17 18 18 17 17 16 15 12 8 7 9 8 7 7 9 13 16 17 18 20 22 25 26 27 28 28 28 28 26 25 25
9 14 20 18 12 15 15 13 9 10 11 11 12 13 16 17 17 21 23 24 25 25 28 30 33 35 35 34 34 33 32 30
12 12 11 4 2 5 10 11 13 14 15 16 18 20 21 23 24 25 28 30 30 30 32 33 34 37 39 41 41 41 39 37
10 7 6 4 5 8 10 12 13 14 15 17 18 19 19 21 24 30 31 32 33 35 37 38 38 40 42 42 42 45 47 44
6 4 2 2 3 6 8 9 11 11 10 10 13 18 23 27 30 33 36 36 34 32 31 32 33 34 36 36 39 42 44 45
8 7 7 7 6 5 5 5 6 9 13 19 25 29 33 36 36 36 36 37 36 36 35 33 33 33 35 37 38 39 39 41
5 6 5 7 9 8 9 11 15 20 24 29 34 38 40 38 38 39 40 40 39 35 34 34 34 32 31 30 32 33 32 28
15 14 13 13 13 15 17 20 24 30 33 36 35 33 31 32 36 39 39 37 35 33 31 29 27 25 23 20 18 16 14 17
15 17 18 19 21 23 25 28 29 32 31 25 24 25 28 33 37 39 38 35 32 30 27 26 22 18 14 12 11 11 13 13
18 19 21 23 22 24 26 28 24 21 23 24 24 26 32 35 39 40 37 30 28 25 21 15 11 10 11 14 16 18 21 15
21 20 21 22 19 21 22 21 22 22 24 25 26 29 34 39 43 37 26 23 18 11 7 7 8 11 13 15 11 10 12 12
17 15 17 17 13 22 24 24 25 26 29 28 29 32 38 42 39 30 20 13 5 6 12 12 14 10 6 8 8 10 12 14
20 19 25 25 25 24 24 24 27 29 32 31 32 36 39 38 28 22 9 5 9 10 14 16 15 14 13 14 15 15 16 18
20 19 29 26 26 24 26 29 31 31 29 30 32 34 32 25 21 19 14 15 16 17 17 18 17 15 16 16 18 21 23 25
21 21 21 18 20 27 30 32 32 30 31 30 31 24 22 21 15 14 16 17 15 17 14 15 17 17 20 23 26 28 29 29
16 16 16 20 27 32 37 37 34 30 26 27 22 22 18 13 12 11 12 14 17 19 20 19 20 21 24 28 30 30 29 29
13 14 21 26 32 34 33 31 28 24 26 26 20 19 11 14 13 17 17 18 20 19 17 20 23 26 26 26 26 27 29 29
17 20 26 30 32 32 32 30 26 25 24 17 15 14 14 14 16 19 20 21 21 21 23 24 25 26 25 26 28 27 26 25
20 22 28 32 33 31 26 24 24 19 13 10 13 15 16 16 18 22 24 23 22 23 24 24 24 25 26 26 26 25 23 23

GFSFLT1_850_spd_024.txt.gz
Wind_Speed
11 8 11 13 14 17 15 11 13 15 13 11 9 9 9 11 12 14 16 18 19 21 24 25 23 22 23 22 23 22 23 22
2 8 13 11 10 8 5 5 11 14 11 9 7 8 10 11 12 16 18 18 22 28 30 30 29 25 26 27 26 27 26 25
14 12 9 5 2 3 4 7 10 11 11 13 15 15 14 16 14 14 16 25 32 34 34 32 27 26 26 27 28 28 30 28
13 12 10 7 4 2 1 3 6 9 9 6 7 8 10 11 19 23 31 35 33 30 30 30 31 30 25 26 26 27 31 29
10 10 9 8 7 7 6 6 7 9 9 11 16 15 17 24 23 24 36 36 34 30 28 27 28 26 26 26 25 26 26 32
9 10 11 11 10 9 9 9 10 13 15 19 28 27 26 22 35 34 24 22 24 24 26 33 33 29 26 27 25 24 25 28
12 11 10 10 10 11 11 11 11 18 22 24 28 23 20 18 20 22 23 26 26 25 25 31 30 29 25 23 18 13 13 16
10 9 9 9 11 12 13 14 15 17 19 20 16 16 17 19 21 22 28 30 29 28 28 24 17 17 17 16 17 15 16 15
7 8 9 10 10 12 14 15 16 16 16 17 21 24 21 21 22 27 29 29 27 23 18 12 10 8 8 9 15 17 16 12
8 10 11 12 13 13 16 19 20 19 18 19 18 19 22 23 25 29 29 28 21 17 11 8 8 10 14 12 14 13 11 9
11 13 13 14 14 14 15 16 17 17 17 18 18 18 20 22 25 26 24 19 12 7 8 9 10 15 14 9 5 6 7 9
11 11 11 13 14 15 14 15 17 17 18 19 19 20 21 21 21 19 16 9 8 13 14 15 17 15 13 11 11 11 11 11
10 11 12 15 16 14 15 16 18 19 20 20 21 22 20 18 17 13 10 7 15 18 18 17 19 14 14 13 13 12 12 14
12 13 15 16 14 14 17 20 22 23 22 20 20 21 18 16 13 10 11 12 13 14 11 13 14 13 11 11 13 15 16 18
14 14 16 14 13 17 20 20 20 20 19 19 21 16 18 15 12 12 11 11 11 12 15 17 17 17 15 14 15 18 19 19
12 13 13 13 15 18 18 19 19 18 18 20 18 13 15 16 12 13 12 15 16 17 18 15 14 16 17 23 24 20 20 21
10 9 12 14 16 19 19 18 18 18 18 17 11 10 10 11 12 13 13 15 17 16 16 17 17 17 21 24 25 23 21 21
10 13 13 16 18 20 19 18 17 18 16 14 11 11 10 10 11 14 16 18 17 17 17 17 17 16 23 25 26 25 21 21
12 12 16 17 18 19 19 18 17 16 15 14 12 12 11 12 14 15 18 17 17 18 17 16 17 17 25 25 26 24 20 21

GFSFLT1_850_spd_027.txt.gz
Wind_Speed
12 7 7 7 5 7 7 8 8 8 7 7 6 7 7 8 9 9 11 11 11 12 14 16 18 20 23 25 27 28 29 30
7 3 3 2 2 1 1 2 6 3 5 6 7 7 8 9 10 12 11 11 12 16 16 18 22 23 24 26 28 29 31 30
13 13 13 12 9 8 6 4 3 2 2 3 6 8 7 8 6 9 12 16 27 27 22 22 21 22 24 24 25 29 31 30
12 13 13 13 12 11 8 7 6 4 4 4 5 7 8 11 14 20 19 26 23 21 21 22 22 22 23 25 25 27 30 32
11 11 12 11 10 9 7 6 5 6 6 5 8 10 15 18 19 20 18 18 19 20 21 20 22 22 24 24 23 26 26 31
10 9 9 8 8 7 6 6 7 8 10 13 12 13 15 16 16 17 18 17 18 20 20 22 24 24 23 22 23 23 22 25
9 7 6 6 7 7 8 9 10 11 12 12 13 13 15 16 17 18 17 20 21 22 23 23 23 21 20 19 19 17 21 19
4 4 4 5 7 9 10 11 13 14 14 14 14 15 16 16 18 19 22 24 25 26 24 22 19 18 19 18 16 14 20 24
3 5 6 9 10 11 13 15 16 17 16 16 16 16 17 18 19 21 23 24 25 22 20 18 16 16 14 13 16 23 25 24
6 8 8 10 12 13 14 16 17 18 18 18 17 18 18 20 21 23 24 24 23 18 21 17 16 19 21 24 20 16 13 12
9 11 11 12 14 15 15 15 16 17 16 17 18 19 20 22 23 23 23 21 19 20 20 21 22 25 24 22 18 16 16 14
12 13 13 14 14 16 15 15 15 16 18 20 20 21 21 21 22 20 18 18 17 14 17 20 23 18 14 13 13 14 14 16
11 11 13 13 17 15 14 15 17 19 20 20 19 19 20 19 16 22 18 15 15 15 16 14 11 14 14 16 17 16 17 18
15 13 14 16 16 14 15 17 18 19 19 19 18 19 19 19 20 16 15 14 14 15 13 14 16 19 20 19 19 20 20 22
14 16 18 20 15 14 16 17 18 17 18 18 19 17 16 15 18 20 13 15 16 17 19 19 20 20 20 20 18 18 21 22
18 16 18 15 14 16 17 19 18 18 18 18 18 20 14 15 14 14 15 16 17 19 21 21 20 20 22 21 25 26 23 24
13 13 14 14 16 18 19 19 18 17 18 18 16 13 14 15 14 14 15 17 20 21 21 20 20 20 23 26 30 31 26 24
11 12 13 16 17 18 20 19 19 19 18 17 17 15 14 13 14 16 17 20 21 21 21 20 20 20 24 27 32 33 25 23
12 13 15 17 20 20 20 21 21 19 19 18 16 15 15 15 17 18 20 20 20 20 20 20 20 20 25 31 34 30 22 23

GFSFLT1_850_spd_030.txt.gz
Wind_Speed
9 15 11 5 5 5 6 3 3 6 10 6 7 8 6 7 5 9 14 14 16 17 18 28 25 23 24 25 26 28 31 32
14 13 10 6 7 6 6 7 11 8 3 5 9 7 7 7 7 13 15 11 20 23 28 30 26 25 23 26 28 29 31 28
18 16 12 10 10 9 8 1 3 5 1 5 6 8 9 8 9 10 15 14 20 25 23 23 21 25 28 27 24 26 27 26
14 15 14 13 13 11 9 7 5 3 4 2 3 3 6 10 12 18 21 20 20 17 18 20 21 23 25 26 27 27 30 29
12 12 12 10 10 10 7 5 4 7 7 4 7 8 10 15 19 16 18 17 18 16 19 20 22 24 27 31 24 25 28 33
11 10 9 8 7 6 6 5 8 9 11 12 13 12 15 14 14 17 17 14 17 20 21 23 27 30 26 19 20 21 21 22
9 7 6 7 7 6 5 6 7 10 13 13 12 14 15 15 16 16 15 20 21 23 25 27 26 20 21 22 22 27 27 30
4 4 4 3 4 6 7 9 10 11 12 12 13 14 14 15 17 19 22 24 27 28 26 23 24 24 27 27 26 25 22 24
2 4 5 6 8 9 9 10 13 14 14 15 13 13 16 17 18 22 25 25 23 22 22 22 26 26 24 23 23 24 29 24
6 5 7 7 9 12 13 14 15 15 15 17 19 17 18 19 20 24 22 20 19 23 29 30 23 23 24 25 25 24 21 17
5 7 8 9 11 12 13 12 14 16 17 17 18 20 19 21 21 21 20 21 26 27 27 22 21 19 20 18 17 15 16 16
8 8 11 11 9 12 16 14 14 16 18 20 21 21 20 18 19 20 22 25 28 22 18 22 19 15 16 16 17 18 18 17
7 8 6 11 14 14 15 13 13 17 20 19 19 19 19 20 22 23 23 17 15 17 19 21 17 19 20 22 22 20 22 21
8 9 12 12 14 16 13 12 15 18 18 18 19 20 18 20 23 22 23 21 21 19 18 19 20 21 22 21 22 22 18 21
17 12 12 15 17 18 14 17 18 19 19 20 19 21 22 23 19 19 19 18 17 17 18 19 22 23 23 24 22 23 26 29
14 15 19 21 18 14 16 18 20 20 22 20 19 20 16 22 21 19 17 16 16 20 21 21 22 23 24 22 25 28 31 35
20 18 18 17 13 16 18 20 22 23 23 24 24 21 20 14 18 17 17 19 18 20 21 21 21 19 24 27 29 31 34 36
22 18 18 16 16 17 21 23 21 22 26 25 20 18 14 22 21 19 18 20 20 20 21 21 19 18 23 28 33 33 34 35
16 17 17 19 22 24 24 22 22 24 25 25 24 19 17 16 17 19 19 19 20 21 20 20 23 25 29 31 34 33 34 27

GFSFLT1_850_spd_033.txt.gz
Wind_Speed
24 24 20 19 19 16 14 8 10 6 7 6 8 7 7 8 10 10 11 13 15 19 20 21 24 27 25 26 27 26 28 31
19 19 17 13 8 4 6 6 5 8 3 4 5 8 5 4 9 13 15 13 15 19 22 22 23 23 24 25 27 29 28 26
14 9 7 4 2 2 3 6 7 3 3 4 8 11 7 3 5 5 8 12 13 15 16 16 18 20 22 24 27 29 32 27
16 15 14 11 9 7 4 3 4 3 3 5 7 6 7 10 11 14 15 15 15 17 18 19 19 22 24 26 29 32 31 28
13 11 10 9 9 6 7 8 12 13 13 14 12 13 14 15 17 20 21 23 23 22 19 20 23 26 30 30 26 22 24 25
9 6 8 9 9 8 6 6 10 13 15 17 17 14 14 14 14 16 18 19 21 23 26 32 31 29 25 22 21 22 24 28
8 6 7 8 8 9 9 5 6 8 8 8 9 12 13 14 16 18 21 24 25 28 32 30 26 24 25 25 28 25 26 23
13 10 9 7 5 5 3 4 8 12 15 16 15 15 14 15 18 21 24 26 30 33 34 31 28 28 28 22 22 25 23 25
8 8 6 5 4 6 11 13 14 11 12 13 15 17 17 16 19 20 24 29 32 32 26 27 29 23 20 21 22 21 24 22
5 5 4 7 7 5 5 5 8 11 15 17 19 18 20 22 23 24 24 22 22 25 29 30 27 22 17 15 14 15 15 16
3 2 3 1 3 6 10 13 14 14 15 20 22 24 26 24 23 22 24 25 27 29 26 21 22 22 19 17 16 17 19 18
2 2 4 6 7 10 10 12 16 18 18 21 26 25 19 21 24 26 27 31 25 22 21 21 23 21 19 18 18 19 19 19
6 7 9 8 8 11 14 18 23 17 22 27 23 22 22 25 26 25 30 24 21 20 21 17 17 17 18 18 17 19 19 20
13 10 10 11 15 20 23 20 17 21 24 21 22 22 23 27 29 24 28 21 18 16 16 16 18 21 22 22 22 23 23 21
15 18 19 22 26 18 15 17 19 22 26 23 24 23 26 30 24 23 27 21 19 18 20 20 20 22 22 22 21 21 25 27
19 17 20 22 18 13 16 17 24 28 27 27 25 25 30 28 26 21 21 17 15 18 20 21 23 23 22 22 26 30 32 34
19 20 21 17 17 17 19 25 29 25 24 28 29 30 30 31 25 18 16 17 18 16 18 20 23 24 26 28 31 35 36 36
19 18 15 18 20 22 25 25 30 31 29 28 33 25 24 22 16 17 18 14 16 14 19 21 22 24 26 31 35 32 28 28
17 18 20 22 22 20 19 21 23 25 28 29 24 26 24 24 19 14 12 15 15 18 17 20 21 25 29 32 27 26 29 28

GFSFLT1_850_spd_036.txt.gz
Wind_Speed
24 22 22 21 21 22 23 15 15 9 10 13 14 10 9 8 7 5 8 11 13 15 18 19 22 26 29 29 28 27 27 28
25 24 24 22 17 13 6 5 5 5 7 10 8 7 1 2 4 6 7 9 11 13 17 20 23 24 24 25 27 29 30 32
16 12 9 6 8 6 6 11 9 6 4 2 1 3 4 4 3 7 9 12 16 19 22 23 24 23 23 25 28 30 32 33
16 13 12 11 11 10 9 11 10 7 5 2 3 5 9 13 16 20 21 22 24 23 20 19 20 23 27 31 31 29 25 23
17 14 12 10 11 9 8 8 9 10 12 15 17 18 20 19 20 22 24 26 27 27 27 29 30 32 29 24 22 19 18 22
14 12 9 8 7 7 6 8 9 13 17 17 18 16 15 16 16 17 19 21 24 28 29 28 30 25 25 23 24 23 22 19
11 8 6 6 4 3 3 6 7 12 14 17 20 20 21 21 21 23 24 26 28 28 30 31 29 27 30 28 21 17 20 21
8 7 6 5 4 3 5 6 9 13 16 15 16 15 16 18 20 21 23 26 27 26 27 27 27 30 26 21 19 19 18 17
12 11 9 8 7 6 8 13 15 14 15 16 17 18 18 19 22 23 23 21 20 22 24 28 28 20 19 19 16 13 13 12
12 11 9 7 5 6 8 9 10 12 15 18 20 21 21 26 26 24 22 22 23 30 30 24 22 20 21 22 20 17 16 18
11 8 5 3 2 4 6 8 11 16 23 21 21 23 26 23 24 24 25 26 27 32 26 22 24 24 20 17 17 18 17 18
10 10 7 4 3 7 10 12 15 21 19 20 24 27 25 26 26 27 30 28 26 28 20 19 20 17 16 17 17 17 18 20
12 8 2 5 9 12 17 18 19 18 21 25 29 31 30 25 28 29 29 25 26 20 17 15 15 16 17 19 20 20 19 18
5 6 11 15 17 19 15 14 18 20 23 27 31 28 30 29 28 29 28 25 23 17 16 17 19 16 19 22 22 18 19 22
11 14 15 15 15 15 13 14 17 22 26 30 29 26 28 28 30 33 27 21 19 16 16 15 19 22 23 21 22 22 25 29
15 15 14 11 15 17 18 20 25 29 28 28 26 28 30 34 27 27 26 22 14 17 18 17 18 20 21 21 22 26 31 32
12 11 12 15 18 22 23 23 21 19 19 24 23 26 23 24 21 30 28 17 16 14 14 15 20 18 20 21 26 30 30 27
12 14 17 19 18 17 17 22 25 25 27 19 21 24 28 20 25 26 33 23 9 11 15 16 16 18 20 24 27 27 26 25
12 14 13 14 15 18 18 22 26 25 19 24 27 29 29 33 31 30 18 13 13 15 13 13 15 18 22 25 24 24 24 26

GFSFLT1_850_spd_039.txt.gz
Wind_Speed
9 13 15 23 32 32 29 25 17 9 17 11 8 9 9 8 8 8 11 14 16 17 17 17 22 25 26 27 29 31 32 32
25 21 18 18 20 21 21 15 9 5 3 4 3 5 6 6 6 7 9 12 13 16 19 21 24 26 27 29 32 33 34 37
20 19 18 15 10 7 8 11 10 7 5 5 2 2 5 9 12 15 17 19 21 23 25 26 25 25 27 30 32 33 33 31
15 12 12 13 15 14 13 11 8 5 4 3 4 5 11 18 21 23 24 25 25 25 25 24 26 30 31 30 28 27 28 28
17 15 15 13 13 10 7 8 7 7 8 9 10 13 18 21 23 23 22 20 21 22 25 27 27 28 27 25 27 27 25 24
16 14 13 9 6 5 7 8 11 11 12 13 14 14 16 17 17 18 19 21 23 24 23 25 26 26 26 28 26 19 16 16
13 10 6 3 1 5 5 6 8 10 12 14 16 17 18 18 18 19 21 24 25 25 25 24 26 28 28 22 19 18 17 17
7 4 3 3 3 3 4 7 9 11 13 15 17 17 17 17 17 20 23 22 22 22 23 25 30 28 23 21 18 16 14 13
6 7 4 5 6 4 7 11 12 14 16 17 17 19 18 19 23 23 23 22 21 23 25 27 26 22 16 17 17 15 14 13
7 10 8 6 7 8 10 11 14 15 15 16 17 20 22 25 24 22 24 25 27 25 24 25 21 17 18 16 16 17 17 17
10 10 7 5 5 6 9 12 14 15 17 18 19 22 27 28 27 22 25 27 28 28 26 26 21 18 16 15 16 17 18 16
12 11 4 6 5 10 11 13 15 15 16 18 21 26 28 25 25 25 27 29 30 28 28 24 19 16 16 19 19 18 20 20
8 5 3 4 8 11 11 10 13 15 17 21 24 26 25 25 25 28 28 29 26 23 22 20 19 18 20 17 19 23 21 19
5 2 6 8 9 9 10 11 15 15 19 23 24 23 21 23 28 26 25 26 21 27 28 20 17 21 18 20 22 21 22 22
4 5 7 6 6 7 8 11 14 17 20 20 19 23 22 27 27 25 25 24 30 34 19 15 21 16 18 21 21 22 23 27
3 4 5 5 8 10 12 14 14 16 23 27 30 27 27 24 28 23 23 28 30 31 22 19 13 15 18 20 21 22 27 28
4 4 6 9 10 10 13 17 22 26 30 29 24 23 27 31 28 25 28 29 30 28 18 10 16 15 16 18 22 27 26 25
1 5 7 7 11 15 18 21 25 27 22 19 22 26 27 30 33 27 25 26 23 12 15 14 13 15 18 21 25 25 24 24
4 4 6 10 13 16 21 24 24 20 19 25 27 27 31 35 28 23 18 17 14 11 10 11 13 16 20 25 24 23 24 25

GFSFLT1_850_spd_042.txt.gz
Wind_Speed
15 16 20 24 28 30 29 21 18 13 18 14 14 8 3 2 7 8 9 11 13 14 15 17 19 22 24 26 27 27 30 32
6 7 8 11 16 18 16 16 15 15 3 3 3 2 5 10 12 13 14 16 17 19 21 23 24 26 26 28 30 31 31 31
19 16 13 12 10 4 2 8 8 6 5 4 3 5 7 13 16 16 16 17 19 21 22 23 24 26 29 30 30 31 30 30
16 11 8 11 16 16 14 12 9 7 5 6 5 4 8 13 17 19 20 20 18 19 21 23 26 27 27 29 28 28 30 27
12 14 17 15 15 14 14 13 9 6 4 2 4 7 11 13 15 17 16 17 19 22 24 25 26 26 26 28 29 28 25 21
15 13 12 12 9 9 7 5 2 2 4 5 8 9 12 13 13 16 16 18 20 22 23 23 24 25 27 27 24 21 18 17
13 11 8 8 8 7 5 2 4 8 8 9 10 13 15 15 15 15 18 20 20 20 20 22 24 25 26 25 23 20 16 14
15 13 11 9 6 9 4 4 5 10 8 9 10 11 13 14 16 16 14 14 18 19 22 23 24 25 24 22 20 18 19 17
13 13 12 10 8 8 5 4 7 9 9 10 11 13 14 17 18 19 17 20 23 24 24 25 25 25 22 18 18 17 16 16
11 12 11 9 7 5 2 4 8 9 10 11 13 14 20 23 22 22 22 23 26 25 25 24 21 20 18 17 15 15 15 17
9 9 8 6 4 2 4 6 9 10 11 14 15 19 22 24 22 21 23 25 25 25 22 20 22 20 17 15 16 16 18 18
9 9 9 6 3 3 6 10 12 12 14 13 18 20 20 21 20 23 25 23 24 25 22 24 26 24 17 17 19 16 18 19
11 8 4 1 4 6 8 12 11 11 11 16 20 23 20 21 21 23 22 22 22 24 23 27 25 22 19 19 16 18 17 17
7 2 1 3 4 6 9 8 11 14 16 18 18 20 24 23 23 22 23 22 22 23 24 30 29 19 16 17 15 17 18 19
1 2 2 1 5 7 9 11 13 13 16 22 26 26 22 20 24 28 29 29 26 26 29 31 29 16 15 12 16 17 20 24
1 1 2 4 6 7 7 10 13 18 23 25 23 20 19 25 28 31 30 25 25 27 29 29 25 11 11 15 15 20 25 29
4 3 3 5 4 6 10 14 19 22 24 22 18 22 26 25 28 31 26 21 21 20 16 15 9 12 12 12 18 26 29 29
6 5 4 3 7 9 14 18 21 23 22 20 23 25 24 25 31 26 26 19 13 15 11 10 11 11 11 16 24 27 26 27
5 5 4 5 8 13 18 20 21 22 23 23 23 24 25 27 27 25 23 15 14 13 11 12 11 12 17 22 24 23 24 25

GFSFLT1_850_spd_045.txt.gz
Wind_Speed
15 15 15 16 18 20 21 19 17 16 13 22 20 7 2 3 6 6 8 10 13 15 17 18 19 20 21 22 25 27 28 29
5 7 7 7 8 9 10 9 15 7 12 7 11 7 8 6 5 7 9 12 14 16 17 19 21 23 25 26 27 27 26 28
8 7 7 7 5 6 4 3 6 9 9 10 10 8 4 3 9 13 16 19 18 17 18 19 22 23 24 25 25 26 26 26
18 14 11 19 22 20 17 15 14 12 10 7 6 4 3 8 12 15 16 18 16 16 19 20 22 23 23 24 25 26 24 23
13 20 21 20 20 19 17 15 12 10 7 3 1 2 5 10 10 12 14 14 16 18 19 19 19 21 23 24 24 23 21 16
19 19 18 17 16 14 13 11 8 5 3 3 5 6 6 7 9 12 15 17 17 17 16 18 19 20 20 21 21 21 19 16
18 17 14 14 13 13 12 10 8 6 4 4 5 5 5 8 12 15 16 16 14 15 17 18 18 20 21 21 20 18 17 15
19 18 15 13 13 12 9 8 5 3 3 5 6 6 10 14 15 15 16 15 17 19 20 19 20 20 20 20 20 19 18 16
17 15 13 12 10 10 9 6 5 4 4 5 6 10 12 14 17 16 16 19 19 21 21 22 21 20 21 22 22 20 16 16
14 13 14 12 11 10 7 6 4 3 4 7 10 10 13 15 16 16 18 21 21 21 22 23 22 21 23 24 23 18 17 17
14 13 13 13 11 9 7 3 3 5 8 10 8 12 15 18 20 20 21 22 23 23 23 23 23 22 22 23 22 17 18 16
11 12 13 12 9 7 3 3 5 8 10 10 12 17 20 20 21 22 22 23 22 22 22 24 24 24 23 24 19 16 14 16
14 14 12 9 6 3 2 6 7 11 9 12 15 16 20 23 21 19 21 25 24 24 23 23 25 24 22 25 15 11 13 16
14 11 8 5 3 2 4 9 7 8 10 14 19 23 22 19 17 21 24 28 26 24 23 24 24 24 24 26 11 10 13 16
11 7 5 4 3 2 7 5 7 12 16 20 20 17 15 16 21 25 27 26 25 24 22 22 23 23 26 9 8 15 15 19
8 7 6 4 2 3 3 7 12 16 18 18 16 14 18 20 23 26 26 24 25 25 22 19 17 12 8 10 14 13 18 24
9 9 6 4 4 3 7 11 15 18 17 16 16 19 21 23 25 26 24 24 23 16 16 14 9 9 10 10 12 17 24 27
11 7 5 5 3 6 11 15 17 17 17 18 19 20 22 23 23 24 23 21 19 18 14 11 12 11 9 13 18 22 23 23
11 9 8 5 5 9 13 16 18 18 19 20 22 22 22 22 21 24 23 22 20 20 14 11 11 10 13 17 22 21 21 23

GFSFLT1_850_spd_048.txt.gz
Wind_Speed
7 10 10 11 14 15 15 18 18 15 17 5 8 10 6 4 3 5 7 8 10 11 14 15 13 10 11 18 18 15 16 18
4 6 7 9 12 12 10 7 9 8 8 6 9 12 10 6 1 5 9 12 15 15 12 14 16 13 19 19 16 16 17 17
6 6 8 9 12 12 12 8 7 10 11 11 11 11 8 4 3 7 10 14 17 15 14 13 18 13 13 14 16 16 16 15
12 11 12 14 14 14 13 13 14 14 13 12 11 11 5 3 4 5 13 15 13 14 16 17 16 13 13 15 14 14 16 16
11 16 17 17 17 15 15 14 14 15 14 10 10 6 5 6 4 8 10 13 14 16 17 14 13 13 13 13 13 14 14 16
18 18 18 16 18 15 14 13 11 14 11 8 6 4 5 3 5 9 9 10 13 15 14 14 13 13 13 13 13 13 15 15
18 16 15 13 16 16 14 12 11 10 7 7 7 7 6 3 5 7 9 10 9 12 13 14 14 15 15 15 15 16 16 16
19 17 14 12 13 13 11 10 8 8 8 7 7 6 3 4 6 9 11 13 14 16 17 18 19 19 18 17 18 17 17 18
17 16 14 12 12 11 10 9 9 8 6 4 3 2 4 6 9 11 14 15 16 17 18 19 19 21 21 19 18 18 18 18
16 14 13 13 11 11 10 8 7 7 6 7 9 9 9 10 14 14 13 15 18 19 20 21 22 22 21 20 20 20 20 18
15 14 12 11 10 11 13 10 9 6 5 8 8 9 10 13 13 12 13 15 16 18 20 21 23 23 21 21 20 20 19 18
15 13 11 11 11 11 11 7 5 4 6 9 8 9 13 11 11 11 12 15 18 20 21 22 22 23 21 21 21 20 21 15
14 13 14 13 12 10 10 7 4 11 7 3 7 10 10 10 10 12 15 17 19 20 19 19 19 19 19 22 25 21 13 12
15 14 14 12 11 11 8 4 8 1 3 7 9 10 11 11 12 14 16 18 19 18 17 17 17 17 16 18 19 21 9 11
15 14 13 11 10 8 5 3 4 5 7 10 12 12 11 11 14 15 16 18 18 17 17 17 18 18 18 14 9 7 10 12
16 15 13 11 11 9 3 6 6 10 13 13 11 11 12 13 14 15 17 17 17 17 13 12 15 10 6 5 7 8 11 15
17 15 14 13 11 8 7 7 10 14 14 11 12 13 14 15 16 16 17 18 18 15 14 13 9 8 12 10 9 10 14 15
17 16 14 11 10 9 5 7 12 13 11 12 13 14 15 16 16 16 17 19 17 17 15 12 11 10 12 11 12 13 14 13
17 15 13 11 9 6 6 10 12 13 13 15 15 16 17 15 15 16 18 19 17 17 17 13 11 9 11 13 16 15 12 13

GFSFLT1_850_spd_051.txt.gz
Wind_Speed
10 9 10 10 13 15 16 21 18 16 16 13 14 16 20 14 7 4 3 4 6 5 6 6 7 7 9 11 13 14 15 17
8 8 8 11 14 17 24 17 13 12 7 9 9 11 12 11 6 5 3 1 3 5 5 7 10 9 11 12 13 15 16 18
9 9 9 12 14 15 12 12 11 8 6 7 10 10 10 9 8 4 3 6 14 8 16 10 11 12 12 12 14 16 17 17
13 12 12 14 15 14 13 12 12 11 11 12 11 11 9 7 5 2 7 12 18 20 15 12 11 11 12 14 14 15 18 18
14 15 15 15 15 15 14 14 13 13 12 9 10 8 6 7 2 6 5 12 8 9 10 10 10 12 14 15 15 17 17 21
17 18 19 18 17 16 15 14 13 12 10 9 9 6 4 4 4 6 9 9 11 10 9 11 13 15 16 18 19 18 19 21
19 19 19 17 16 15 14 13 11 10 9 8 7 6 5 5 6 8 8 10 10 11 13 14 17 18 18 19 24 21 21 21
21 20 18 15 14 14 12 12 10 9 8 7 6 4 5 4 7 9 10 11 13 13 14 16 18 19 21 22 24 23 21 21
21 19 16 14 13 13 12 12 11 9 8 7 5 2 3 6 9 11 13 13 13 15 17 18 20 21 22 22 26 22 19 20
20 18 16 14 13 13 13 13 12 11 11 9 4 5 9 9 10 12 12 13 14 16 17 18 19 20 21 22 24 24 22 20
19 17 16 15 14 13 13 13 13 10 8 6 10 14 7 9 10 12 12 12 13 15 17 18 20 20 21 22 23 22 20 19
19 17 15 15 14 14 14 14 11 9 6 13 10 4 8 10 11 11 11 12 14 16 18 18 18 19 20 20 22 20 20 21
18 17 16 16 16 15 14 14 12 5 12 2 5 8 10 10 11 11 12 14 15 17 18 18 19 19 19 19 19 18 18 16
18 18 17 17 17 16 15 13 9 11 4 7 8 10 11 11 11 13 14 14 16 17 17 19 20 19 18 20 18 14 13 9
19 18 18 17 17 16 14 9 6 5 6 7 10 11 10 11 13 13 14 15 17 17 18 18 23 17 14 13 10 8 9 10
20 19 18 17 17 15 12 8 6 6 6 8 10 10 11 13 14 15 16 17 17 19 19 18 15 18 10 8 9 10 9 12
20 18 18 17 16 14 10 8 6 5 7 9 9 11 13 14 16 17 18 17 18 19 19 20 18 14 18 17 16 10 11 14
18 18 17 16 14 12 9 7 5 5 8 9 10 12 14 15 17 17 17 18 19 20 21 20 21 17 22 16 14 13 12 13
17 16 15 13 12 10 8 5 4 7 9 10 11 13 15 17 17 17 17 18 19 20 20 18 21 18 17 16 14 15 11 12

GFSFLT1_850_spd_054.txt.gz
Wind_Speed
13 13 13 15 18 21 24 22 12 19 14 11 10 13 18 21 15 6 1 2 5 6 10 14 12 6 12 18 18 20 17 18
14 13 14 13 17 24 23 18 14 11 10 10 9 8 11 14 13 11 1 2 5 7 3 8 13 15 13 13 16 20 20 19
13 14 14 14 18 23 19 12 13 10 6 5 6 10 9 8 8 7 7 5 6 3 14 14 13 17 16 13 19 23 22 16
15 14 14 18 20 20 15 13 11 13 11 11 8 11 12 14 9 4 5 8 6 12 15 18 18 17 13 16 18 16 18 24
18 19 18 16 16 14 16 11 11 12 14 13 14 11 9 10 8 9 1 10 13 18 16 18 14 13 14 15 15 21 25 18
16 16 10 15 16 15 18 17 16 16 13 13 12 8 8 10 7 6 6 11 12 14 15 11 13 15 17 20 21 19 20 25
17 18 20 21 21 20 20 18 16 16 15 14 13 13 11 10 10 10 8 9 10 10 10 11 13 15 18 19 23 27 28 28
22 24 22 21 21 22 21 18 16 14 13 12 14 16 14 11 7 6 10 12 12 14 17 18 19 22 22 23 25 27 28 30
25 25 24 20 19 18 17 17 15 14 13 12 12 11 6 7 9 10 13 13 14 15 18 19 20 22 23 23 23 25 26 27
25 25 23 20 19 18 17 16 17 16 15 14 13 10 7 14 8 12 12 12 14 14 18 20 18 21 22 22 23 23 22 23
25 24 21 18 19 17 17 15 17 20 20 17 10 8 7 4 12 11 11 14 14 15 16 18 20 20 20 21 21 24 23 28
23 22 21 17 20 21 19 16 19 18 18 13 6 6 6 11 9 11 13 13 14 15 18 19 18 19 19 20 20 19 18 18
23 21 20 19 15 16 17 18 14 18 14 8 12 7 7 10 10 12 13 14 15 16 17 18 18 18 19 22 24 22 21 23
23 20 17 16 16 14 15 19 20 16 7 1 2 7 9 10 12 13 14 15 16 18 18 18 20 24 26 26 20 17 18 11
18 15 15 14 15 17 17 17 16 8 4 7 9 9 10 11 13 15 15 16 17 18 17 20 20 23 28 21 18 13 14 12
13 15 15 16 18 15 15 11 9 8 8 7 7 9 10 10 13 15 18 19 20 18 19 22 24 28 21 21 11 12 13 13
16 16 16 17 16 16 13 12 9 9 5 5 7 10 12 13 15 16 17 18 19 20 21 25 28 25 22 25 21 19 18 17
15 15 15 16 14 16 13 11 11 5 5 5 7 11 13 14 15 16 17 19 19 19 24 26 28 21 24 24 20 14 16 15
11 12 12 13 14 13 14 10 5 3 4 8 9 11 15 16 16 17 17 18 19 21 24 26 22 21 23 20 14 13 16 12

GFSFLT1_850_spd_057.txt.gz
Wind_Speed
26 25 25 25 26 24 27 23 20 20 16 16 11 18 13 13 12 10 3 4 1 5 6 9 10 10 12 17 19 22 22 21
25 21 25 27 27 27 27 22 21 20 20 14 15 12 11 13 11 9 8 5 3 0 4 9 13 16 17 18 18 21 25 28
24 22 20 25 28 27 26 21 15 14 14 10 8 10 8 9 9 9 6 4 5 7 7 12 17 17 17 19 21 23 25 24
23 20 21 14 26 27 23 16 13 13 14 10 6 10 13 13 10 6 8 7 9 12 17 20 18 20 19 21 21 22 22 23
24 23 21 17 21 20 14 8 18 18 16 15 15 15 15 12 9 9 6 7 14 16 19 20 21 19 19 18 17 20 24 25
27 24 20 20 18 17 12 19 18 18 19 14 15 11 15 16 15 12 7 6 9 12 16 14 11 12 14 15 17 18 22 25
28 22 20 15 17 21 20 17 18 23 16 17 17 15 20 18 15 12 11 8 10 10 9 9 10 14 17 21 24 25 26 28
24 22 22 20 18 18 23 24 25 23 20 21 21 18 19 17 15 13 13 15 15 17 18 19 21 24 27 26 25 24 24 24
25 26 27 27 25 25 24 23 23 22 23 23 23 21 17 13 10 13 13 15 19 19 22 23 25 25 26 24 24 26 26 23
29 30 29 26 26 25 24 18 19 20 21 23 22 18 14 12 13 12 18 19 19 19 21 22 23 22 23 22 22 23 23 23
30 31 29 26 21 20 21 21 23 24 24 23 20 15 13 12 16 21 14 18 18 20 20 21 21 21 19 19 20 20 20 21
29 32 30 26 23 20 25 22 24 25 25 23 17 12 11 12 11 13 15 18 19 19 21 22 22 20 20 20 22 24 26 25
30 29 30 29 31 30 30 25 23 24 22 16 10 8 5 7 9 13 14 15 17 19 21 22 23 20 21 24 26 30 27 26
30 28 33 30 32 31 25 21 20 17 12 9 3 1 6 11 13 13 16 19 21 23 23 24 16 21 24 26 28 27 24 12
33 32 32 27 25 22 21 20 17 13 9 5 6 8 12 14 15 18 20 20 21 22 23 19 21 24 27 29 29 22 20 15
29 31 27 22 19 17 19 20 16 12 9 10 11 10 14 15 16 18 18 19 20 21 19 20 23 27 28 30 24 23 18 16
23 21 21 20 19 21 19 15 10 13 15 10 10 13 14 14 15 17 21 20 19 20 22 25 26 29 29 29 22 26 26 24
17 18 19 18 20 20 15 15 16 17 13 9 8 10 14 18 21 22 20 18 19 19 18 22 26 28 30 25 23 24 22 13
14 17 18 20 19 19 20 17 15 9 5 3 8 11 15 20 21 20 18 21 23 24 26 25 27 30 26 27 23 19 15 12

GFSFLT1_850_spd_060.txt.gz
Wind_Speed
33 39 38 33 24 26 29 29 25 25 21 21 21 18 16 11 9 6 8 10 8 6 3 4 8 11 12 13 14 17 19 21
36 37 33 34 30 29 28 30 28 27 24 21 22 17 18 12 9 10 9 6 6 4 5 8 10 12 12 13 15 18 20 23
37 37 41 39 34 31 29 26 25 25 23 19 18 17 16 10 10 10 10 9 5 4 6 10 13 13 14 14 17 19 22 23
42 45 43 40 36 33 30 26 25 22 21 20 16 16 15 15 14 11 10 8 7 8 13 15 18 20 18 17 19 21 21 21
35 38 37 36 34 33 32 31 25 20 22 21 16 17 16 14 11 10 10 10 10 14 15 18 20 23 20 20 19 19 20 22
39 36 31 24 27 31 31 22 19 22 23 20 14 14 13 13 16 15 13 12 10 12 14 16 17 18 18 18 19 21 24 26
36 29 24 23 22 26 20 19 23 22 21 18 20 18 17 18 20 18 14 12 10 14 15 15 17 18 18 20 23 27 26 26
35 31 25 26 21 19 22 24 22 24 24 24 23 21 20 20 22 20 18 16 14 11 13 20 18 19 21 23 25 26 24 24
36 32 22 22 23 25 26 25 23 25 25 25 23 23 21 20 19 15 11 10 13 22 23 21 23 24 25 25 26 26 26 25
33 29 27 27 26 25 27 26 30 27 23 22 21 20 19 20 18 11 11 17 21 17 19 21 25 24 25 26 27 26 25 23
32 31 30 25 22 25 26 28 26 23 21 21 20 20 20 17 12 15 19 17 18 19 21 23 24 26 26 26 24 23 23 24
34 33 31 26 25 28 29 28 26 24 25 24 23 23 19 12 13 17 15 16 20 21 24 25 26 28 27 25 22 25 27 28
34 34 34 33 30 28 30 31 26 27 30 27 23 21 14 14 7 11 15 16 18 21 22 25 27 26 25 22 24 27 29 32
38 39 39 37 36 35 35 34 31 33 28 23 18 17 9 8 7 9 12 14 18 21 25 26 25 27 23 24 24 26 30 29
39 38 39 39 39 38 34 29 29 24 18 15 11 12 11 8 9 11 15 18 18 24 27 25 25 25 24 24 27 29 30 21
34 34 36 39 35 32 30 24 19 18 17 16 14 12 8 7 11 13 11 16 24 26 23 22 23 25 25 25 27 30 24 23
33 34 33 31 33 29 23 22 21 21 18 16 15 11 9 9 5 13 28 24 24 23 22 24 25 21 25 26 27 25 25 25
31 32 35 31 26 25 27 27 24 20 17 15 12 10 5 8 20 15 19 21 20 21 22 25 27 28 27 26 26 27 27 23
27 27 26 27 27 28 26 23 21 20 17 14 8 5 15 13 15 18 20 20 20 22 24 25 24 22 23 26 29 31 24 18

GFSFLT1_850_spd_063.txt.gz
Wind_Speed
32 31 28 27 26 25 26 26 24 23 20 18 19 20 18 15 14 11 9 13 12 10 7 3 4 9 11 12 12 13 13 15
30 31 32 33 30 28 31 29 29 25 25 25 24 21 18 16 13 11 13 13 12 8 4 5 9 11 12 13 13 13 15 18
33 32 34 35 32 31 35 31 31 30 25 23 20 20 17 14 13 13 12 12 9 5 6 10 11 12 14 15 14 15 17 20
39 36 40 36 36 34 34 31 31 26 26 25 22 21 17 19 18 16 12 8 6 8 9 10 11 12 13 17 18 18 18 20
40 40 42 40 39 37 33 32 32 30 29 29 24 22 24 22 17 13 11 10 10 11 11 8 10 13 16 19 19 18 19 21
44 43 40 36 37 40 36 33 33 28 27 25 20 19 16 15 15 16 14 14 14 10 9 8 10 13 19 19 17 19 23 24
40 41 39 39 36 37 38 37 32 26 27 26 23 17 15 16 18 19 18 18 16 15 11 11 16 27 20 18 21 23 25 25
42 43 40 40 38 33 29 34 31 29 25 26 23 19 18 18 20 23 24 23 20 13 9 19 24 17 18 21 24 24 25 24
46 42 37 34 25 20 22 26 26 27 28 26 22 22 23 23 24 27 26 22 16 16 17 21 11 16 20 21 23 24 23 21
46 39 33 30 22 21 21 25 27 25 24 24 23 26 26 26 26 24 22 14 14 18 13 11 15 18 20 24 24 24 20 19
39 39 35 28 22 19 25 27 26 23 24 25 25 25 24 25 26 25 16 13 14 10 11 15 18 20 24 26 26 22 20 22
36 37 33 26 26 26 28 29 27 27 26 23 22 24 26 26 24 17 15 16 10 13 15 17 20 23 25 25 25 22 22 24
33 34 34 34 32 31 30 31 33 31 30 27 28 30 28 24 13 20 10 8 11 14 16 19 21 22 24 25 23 22 23 24
33 36 37 37 35 34 34 35 37 36 32 29 26 22 19 17 13 11 10 11 13 14 18 21 24 24 23 23 23 22 22 26
37 38 38 38 38 38 39 40 34 31 28 27 24 18 19 19 15 12 10 11 12 18 20 23 22 23 22 22 22 22 24 28
38 37 37 38 39 40 36 31 30 31 30 24 24 21 17 15 13 11 8 10 19 23 23 22 22 22 22 21 22 25 26 27
34 35 36 37 41 37 31 29 28 27 24 23 19 18 17 14 8 7 15 24 20 19 22 22 22 23 23 24 25 25 25 25
26 31 34 34 33 31 29 27 27 23 19 18 19 15 10 7 10 17 19 17 19 19 20 21 23 24 23 21 20 23 26 28
19 23 24 24 25 27 26 25 20 20 21 19 14 7 5 13 18 18 17 18 19 20 21 23 26 26 25 24 23 26 29 30

GFSFLT1_850_spd_066.txt.gz
Wind_Speed
29 28 25 24 21 20 21 21 20 20 20 19 19 19 17 13 12 13 11 8 9 10 9 6 2 4 6 8 10 10 11 13
27 29 28 25 25 22 22 24 24 23 24 23 22 20 17 14 13 13 11 11 12 10 7 5 3 5 6 8 10 12 14 15
34 31 30 30 28 25 24 24 23 25 25 22 21 19 18 16 16 14 13 13 12 10 8 6 6 5 6 11 14 14 14 16
31 32 32 31 31 29 27 26 26 27 26 25 24 24 20 21 19 17 15 13 12 11 9 7 6 5 9 15 17 15 15 15
37 35 34 34 32 31 30 29 30 30 30 28 30 25 24 22 18 15 15 16 16 12 10 9 8 10 13 17 17 13 14 18
40 41 38 36 35 35 33 31 33 33 31 32 27 23 19 18 17 18 18 18 17 15 14 11 9 8 16 22 15 16 18 18
40 38 38 37 36 36 34 34 34 33 34 33 27 23 17 16 17 20 21 20 17 17 16 14 13 14 21 20 16 19 19 19
41 41 39 39 36 34 30 34 35 34 34 35 28 17 17 14 17 19 20 21 21 20 18 10 13 19 17 15 17 18 19 18
41 43 44 41 36 31 31 31 36 38 34 28 22 20 20 16 18 18 22 23 23 20 16 13 19 14 14 15 17 19 19 18
41 40 40 38 32 28 31 31 31 32 32 29 23 22 20 22 23 24 26 28 26 21 13 22 15 13 14 17 19 19 19 16
39 41 40 33 31 27 25 25 24 27 27 23 23 21 24 25 26 29 29 29 19 12 25 12 11 12 16 19 20 20 17 17
36 41 41 36 34 29 19 20 21 24 23 22 22 24 27 28 28 30 30 21 17 15 10 8 12 17 18 18 19 18 18 18
27 32 37 39 36 24 25 23 25 27 29 28 30 29 28 27 26 17 10 17 17 9 8 11 18 17 18 20 19 19 21 21
21 25 30 36 35 27 28 29 30 32 31 28 27 29 26 23 19 17 20 11 6 6 13 16 18 19 21 20 21 21 22 20
22 24 28 33 34 29 28 30 32 33 31 30 31 26 22 18 19 13 9 7 9 12 16 20 20 19 20 21 22 21 20 22
27 29 31 34 32 29 28 29 31 30 31 29 24 17 17 16 11 9 7 9 12 15 23 19 19 21 21 21 20 20 23 24
25 28 30 29 29 27 28 27 26 25 27 23 16 16 14 12 10 6 8 12 17 26 19 20 20 20 20 20 20 21 22 23
16 21 24 26 25 25 26 24 22 23 22 17 16 14 13 10 7 9 12 22 26 20 20 20 20 21 21 23 22 24 24 25
4 10 14 19 18 18 18 21 23 21 18 15 14 11 6 4 10 18 25 19 20 21 20 20 22 23 23 25 26 27 27 27

GFSFLT1_850_spd_069.txt.gz
Wind_Speed
28 30 30 32 31 24 17 14 13 13 16 20 20 19 19 17 16 13 12 12 10 10 10 9 8 5 2 2 5 8 8 9
27 32 29 31 29 22 20 19 19 19 22 22 21 21 20 19 16 12 15 13 10 12 11 11 9 5 4 3 7 10 11 12
26 29 31 32 32 27 24 22 23 22 22 21 20 19 19 17 13 17 16 12 11 13 13 13 11 8 6 4 8 9 11 12
34 34 33 31 30 28 26 23 23 24 24 22 22 21 22 19 20 18 15 14 15 16 16 15 12 8 6 5 10 14 14 13
33 37 39 37 34 31 29 26 24 24 24 24 25 25 26 24 19 17 16 18 19 19 18 15 11 9 6 10 14 15 15 12
34 36 37 36 35 33 30 29 26 25 23 25 26 27 26 18 19 19 20 22 22 21 19 17 11 9 9 13 16 14 14 15
36 35 34 33 30 30 31 30 28 26 26 26 27 28 26 20 21 22 24 24 23 23 21 18 15 11 10 13 14 13 15 16
39 39 39 38 35 33 31 30 29 29 28 28 32 31 26 20 20 22 25 24 24 25 23 20 17 12 14 20 13 16 18 16
40 41 39 38 36 34 30 33 31 27 34 32 31 30 26 22 19 20 20 21 25 26 24 22 11 26 17 12 15 17 17 15
36 39 39 39 37 35 31 27 30 31 29 31 30 28 28 25 22 22 24 25 26 25 22 14 20 16 10 12 16 16 15 16
23 32 37 38 36 34 28 29 30 29 28 27 28 28 24 24 25 27 27 26 24 19 11 14 15 8 9 15 16 16 17 16
15 20 27 33 33 30 32 29 24 25 24 23 23 23 24 29 28 26 26 25 20 10 20 23 7 10 15 18 17 18 18 17
11 14 19 23 26 27 31 27 19 19 20 22 24 28 29 28 24 25 21 17 19 15 17 10 11 15 18 19 19 19 20 20
13 15 18 19 21 25 27 25 22 21 22 23 24 27 25 23 23 18 17 16 13 12 10 8 12 19 20 20 20 21 22 22
14 17 19 20 21 24 26 25 21 23 23 25 28 23 21 19 15 14 16 12 8 7 8 11 19 22 21 19 21 21 21 22
18 20 21 22 23 23 26 23 23 24 24 23 21 22 18 12 16 15 9 2 5 9 10 21 19 18 19 19 20 21 22 23
13 16 18 20 21 25 24 23 20 18 17 19 22 18 15 12 14 8 0 5 4 13 22 19 20 20 20 20 21 23 24 25
4 8 12 15 16 17 16 13 11 12 17 20 18 13 13 11 3 4 5 11 23 16 16 19 20 20 20 21 22 25 28 29
9 7 8 11 11 12 12 13 13 17 19 16 13 15 11 8 5 8 14 20 14 16 19 20 20 21 22 23 25 27 29 30

GFSFLT1_850_spd_072.txt.gz
Wind_Speed
19 21 22 25 30 28 21 16 13 13 14 16 19 20 22 18 17 18 17 16 13 13 12 13 12 10 8 5 1 2 3 5
22 23 25 26 28 25 21 16 14 14 17 18 20 23 22 20 19 19 17 15 16 15 15 15 14 11 9 5 3 4 3 9
26 26 26 28 27 24 21 18 17 16 15 17 16 18 21 21 20 20 18 18 18 16 17 17 16 13 10 7 4 3 4 7
27 29 29 28 28 27 23 20 19 19 17 16 15 17 18 20 21 21 20 20 18 20 20 19 18 13 10 9 6 4 5 6
28 30 31 31 29 26 25 22 20 19 21 20 21 18 17 18 21 20 22 21 22 22 22 21 18 14 12 12 8 5 7 7
30 32 32 30 28 27 24 22 22 21 24 24 23 19 17 23 19 18 23 22 22 23 23 21 18 15 16 14 8 9 8 8
30 30 29 30 30 27 27 26 25 26 25 25 26 22 24 24 22 22 26 25 25 25 24 23 22 20 18 10 15 20 15 10
29 29 30 29 30 30 29 28 26 26 27 28 26 25 26 25 22 24 23 24 26 27 27 27 24 22 10 13 21 12 13 10
29 31 30 29 30 31 30 29 27 28 29 29 28 26 27 28 23 25 25 24 22 23 27 25 25 17 14 17 13 12 11 13
25 28 29 28 29 33 33 30 26 29 29 27 25 28 28 28 25 25 21 19 19 27 26 28 22 14 19 14 11 11 13 12
15 21 26 27 27 28 31 27 26 23 27 30 27 26 27 25 27 25 21 22 26 24 24 19 14 14 17 11 12 12 13 13
9 13 18 21 22 24 27 28 24 21 24 24 22 21 23 25 27 30 28 24 24 20 16 11 21 16 12 13 13 14 14 15
8 11 13 17 20 21 22 24 24 22 19 18 17 20 24 27 27 24 24 20 16 14 15 15 12 10 12 13 16 16 16 17
8 11 13 14 17 19 20 20 21 20 20 22 20 17 15 16 19 21 19 12 17 16 10 12 10 11 12 15 16 17 18 19
10 11 12 14 15 17 18 17 21 22 20 18 19 20 22 25 19 13 14 12 20 11 9 11 13 13 15 16 15 16 18 19
9 12 13 13 14 15 18 21 23 21 20 22 24 19 16 17 5 3 12 16 10 14 8 13 15 18 15 13 14 16 17 19
8 10 13 14 15 16 19 21 20 18 17 14 17 18 18 16 9 12 12 10 11 9 13 14 15 12 17 19 20 21 19 21
4 8 12 13 14 16 17 16 16 16 15 17 18 18 19 12 13 12 11 5 10 14 13 12 12 13 19 19 21 23 23 23
7 8 10 11 13 14 15 16 17 18 19 19 20 18 16 14 11 6 5 10 12 9 9 10 12 14 19 20 22 25 25 25

GFSFLT1_850_spd_078.txt.gz
Wind_Speed
20 25 26 19 24 28 33 30 35 31 31 30 20 19 22 22 22 20 18 18 16 17 16 21 18 15 16 13 13 14 7 10
22 22 18 20 27 37 39 37 32 27 27 24 23 23 22 23 23 21 21 18 19 19 19 19 18 15 16 18 16 14 12 9
22 22 23 23 40 33 29 24 24 24 23 23 21 21 20 24 22 23 20 22 20 22 20 19 20 20 20 18 16 10 8 11
27 25 27 29 30 26 22 19 19 22 20 19 19 18 18 22 21 21 24 22 23 22 21 20 20 21 22 19 17 14 7 9
31 30 33 35 35 33 27 23 22 20 23 23 24 25 25 22 25 23 23 24 22 23 20 23 22 23 22 19 17 15 18 9
35 35 35 38 34 37 32 28 27 20 27 25 25 27 26 22 23 26 28 22 25 27 27 26 26 23 19 19 19 21 18 14
35 35 34 36 35 35 30 33 30 26 24 25 29 28 23 24 26 27 27 23 26 25 28 25 26 24 23 24 25 23 17 15
39 39 39 39 40 40 37 36 33 31 30 32 27 31 31 28 31 31 27 23 26 28 28 29 28 25 28 29 26 19 14 14
38 42 44 42 43 43 42 40 36 34 34 34 32 34 32 32 33 32 26 27 28 27 28 32 28 28 31 29 21 14 13 12
32 33 43 45 44 44 46 42 39 36 35 36 34 34 34 35 34 32 25 25 23 24 28 31 29 31 30 25 17 9 12 17
14 32 36 41 43 44 45 43 40 37 37 36 37 33 34 35 31 26 24 20 19 25 29 31 32 30 30 28 12 9 16 10
8 13 21 35 37 38 40 40 38 35 36 36 37 36 32 33 30 27 26 24 23 26 29 31 30 29 24 25 19 21 8 15
6 7 10 15 27 34 36 38 37 35 34 34 37 33 33 32 34 33 30 27 27 33 31 29 28 20 15 18 20 18 14 12
10 10 10 14 18 24 30 32 30 30 31 34 37 34 30 33 30 25 28 27 28 29 25 23 21 18 14 17 17 12 12 15
12 13 12 12 16 20 20 25 25 26 29 34 36 31 30 31 27 26 21 25 25 23 11 13 18 21 13 15 10 13 18 19
7 10 15 17 14 15 18 19 24 28 32 36 31 29 25 28 26 23 23 22 21 16 9 15 18 16 11 10 16 20 20 19
4 2 8 17 18 16 20 24 27 31 28 25 23 21 25 25 24 24 19 23 20 11 12 15 13 8 11 18 21 22 22 23
4 5 7 15 20 23 26 29 28 26 21 18 17 21 23 23 22 21 23 22 16 14 13 12 12 15 17 20 20 20 21 21
6 7 9 15 20 23 24 24 22 23 18 16 17 21 24 25 23 22 20 18 16 13 10 14 17 14 13 17 20 20 22 23

GFSFLT1_850_spd_081.txt.gz
Wind_Speed
19 21 22 21 23 24 25 34 36 34 38 38 36 35 33 26 22 25 30 20 19 21 20 23 21 19 20 20 17 14 11 13
19 24 23 23 27 28 32 34 30 30 36 37 33 32 29 34 35 32 26 21 20 22 22 21 20 20 21 18 18 18 18 16
28 26 21 26 24 32 29 30 31 32 32 34 30 35 32 29 27 26 25 25 24 25 23 21 20 21 19 20 21 21 20 17
30 27 25 27 33 36 34 30 30 34 33 32 27 25 24 26 28 29 29 27 25 25 26 24 23 24 23 21 21 21 20 16
30 29 30 37 39 38 34 29 28 26 27 28 28 29 31 32 30 30 28 27 24 25 27 27 25 26 26 25 21 22 21 20
35 35 35 38 39 38 32 28 25 23 26 28 29 31 29 28 26 30 30 30 32 29 29 29 26 28 28 26 23 26 26 22
34 35 37 38 39 35 31 29 27 25 24 30 31 34 32 29 28 29 33 31 26 28 32 33 29 28 29 28 26 27 27 24
40 37 38 39 41 41 37 35 36 33 31 33 34 36 33 31 29 29 29 30 28 27 32 35 33 32 31 29 30 29 26 25
46 44 41 43 42 41 40 39 40 40 37 35 36 37 37 34 32 32 30 27 25 25 28 33 33 33 33 34 33 32 28 26
49 48 46 46 44 44 44 44 42 42 40 37 37 39 40 37 35 34 31 29 28 26 27 31 33 35 35 37 32 27 24 20
44 48 50 50 48 47 45 43 44 43 42 42 38 40 39 40 41 39 35 31 28 24 26 30 34 35 35 29 21 25 17 13
17 38 46 51 49 48 48 48 47 46 39 42 39 39 40 39 40 36 34 31 25 24 27 29 32 39 29 31 30 29 21 26
11 8 9 43 52 51 49 48 49 48 41 44 42 39 38 38 35 36 35 29 24 22 21 26 32 34 30 32 29 21 26 21
17 13 8 12 31 40 45 47 47 45 42 39 37 42 41 38 30 31 32 30 25 25 22 29 29 34 31 26 21 19 18 18
15 20 16 13 15 24 31 40 45 42 38 35 35 40 41 30 30 36 34 28 27 22 23 30 31 28 23 22 17 17 15 11
20 24 21 20 18 19 22 26 31 38 38 32 34 37 34 29 33 30 27 26 28 28 25 26 23 23 23 17 16 15 15 19
10 11 16 22 23 23 21 24 27 28 28 28 30 31 32 25 25 27 30 30 27 28 24 19 21 20 16 15 16 16 21 24
12 12 11 23 26 25 26 25 25 27 29 27 27 23 22 23 24 28 28 28 27 26 18 18 19 17 14 14 16 20 22 24
10 10 12 20 25 25 24 25 26 24 18 15 15 16 17 19 25 26 27 27 26 18 16 15 13 12 15 20 23 22 22 22

GFSFLT1_850_spd_087.txt.gz
Wind_Speed
7 8 12 15 22 22 32 37 37 37 38 38 40 37 36 35 31 28 29 25 23 23 23 23 21 21 21 19 16 16 13 11
9 10 13 13 17 19 20 32 34 38 38 43 41 37 39 40 33 28 26 29 26 21 22 22 22 23 24 19 19 18 17 17
10 13 15 16 15 17 25 29 33 38 41 42 39 37 41 37 35 31 30 33 29 22 21 23 25 25 22 23 23 23 20 20
16 18 19 18 18 20 22 27 29 28 35 39 37 40 37 32 38 37 38 32 32 28 24 27 28 25 27 26 27 26 25 25
17 20 21 23 23 19 17 18 24 28 36 39 39 42 43 40 39 38 37 35 35 30 26 27 27 28 27 27 28 29 29 29
21 22 25 23 23 19 20 22 23 25 30 32 32 39 39 38 40 39 36 35 34 30 29 28 27 27 28 30 31 32 31 32
25 22 24 24 22 23 24 25 26 28 30 31 34 37 37 37 39 41 41 38 35 35 34 33 32 32 33 32 35 34 32 34
32 31 31 30 32 32 32 33 32 33 36 36 41 39 38 40 39 42 43 41 40 41 39 39 37 35 34 34 36 34 34 36
37 35 33 33 36 35 35 35 33 35 39 41 41 40 38 40 39 39 40 41 42 41 40 39 38 37 37 36 36 36 35 38
41 39 38 36 37 39 38 37 37 39 40 40 41 39 40 42 40 38 40 41 40 37 35 39 40 39 39 38 40 39 39 39
40 41 42 42 42 42 42 43 44 44 44 45 44 43 44 44 41 42 42 39 38 38 38 38 42 42 41 40 42 38 42 41
39 43 45 46 44 46 49 49 49 48 47 47 46 46 45 43 43 44 43 42 43 42 44 45 41 41 40 38 40 40 41 39
35 37 41 44 46 49 51 52 53 53 51 49 50 47 47 46 46 45 45 47 48 46 43 47 39 39 38 40 41 40 38 38
30 32 37 40 42 44 47 50 53 54 53 52 52 52 51 51 48 46 46 47 46 46 28 39 40 38 38 38 36 37 36 36
31 32 33 34 36 37 39 42 45 48 51 50 50 51 51 48 47 48 47 47 40 26 34 36 37 37 32 34 36 39 42 39
27 32 33 31 33 33 34 33 36 38 42 44 46 47 49 47 46 43 43 44 40 39 34 34 32 39 34 33 33 37 43 40
25 26 29 30 30 30 30 31 31 33 35 38 39 39 39 40 39 40 40 37 38 39 33 31 34 40 38 34 34 38 35 22
22 19 24 29 32 31 29 30 31 32 33 34 33 33 33 34 33 29 27 26 30 29 28 31 36 39 39 32 33 30 28 26
19 19 18 21 26 28 30 30 29 29 28 26 26 28 29 27 23 19 19 23 21 24 29 34 35 30 30 27 24 19 18 18

GFSFLT1_850_spd_090.txt.gz
Wind_Speed
8 9 9 9 10 13 16 18 22 28 32 37 37 35 34 37 41 44 42 39 37 33 30 28 27 26 24 21 16 14 14 12
9 10 10 9 10 16 15 24 29 32 35 36 34 33 37 38 39 37 43 31 30 29 28 27 25 27 25 21 17 18 19 18
12 12 11 10 14 13 11 23 35 32 35 37 38 36 37 34 35 39 40 37 30 29 27 26 27 26 25 23 21 23 21 20
15 15 16 15 14 13 17 18 32 30 36 41 43 38 33 35 34 32 34 35 32 33 32 27 27 25 25 25 26 25 25 24
15 19 19 19 18 18 20 24 35 38 38 37 42 43 41 40 39 35 35 33 35 35 30 26 26 26 26 29 30 28 27 28
19 18 20 18 20 21 22 25 30 31 29 35 42 40 40 40 38 40 40 34 34 34 32 30 27 26 28 31 32 33 33 32
22 18 18 22 23 22 23 24 28 31 32 34 41 43 41 40 39 43 45 43 40 35 33 34 31 31 29 29 30 32 34 35
28 26 26 26 24 24 23 25 28 31 34 34 37 37 36 38 37 44 43 43 41 40 39 39 37 33 31 31 33 35 37 38
32 30 28 29 29 28 26 27 28 29 32 33 33 33 32 35 37 37 40 44 45 42 40 40 39 37 36 37 37 38 38 39
34 33 31 30 31 33 33 32 30 30 32 31 32 32 34 35 37 38 41 42 43 43 42 43 41 42 42 41 42 41 39 40
27 34 35 34 33 32 34 35 33 32 33 33 34 35 37 38 38 40 40 42 42 42 43 43 44 45 43 42 43 41 40 39
21 27 33 35 35 34 35 36 36 37 36 34 35 36 36 36 38 39 39 39 40 43 44 44 45 45 43 42 40 41 39 40
20 23 27 31 35 37 38 38 38 38 36 35 35 38 38 40 41 40 40 41 42 44 44 45 48 44 46 40 39 30 34 43
17 19 22 24 28 32 37 39 41 41 38 37 41 41 45 42 42 43 43 44 44 44 45 45 45 43 48 44 35 44 50 50
15 19 20 23 25 26 28 30 34 39 44 45 43 43 44 44 45 46 47 48 46 46 44 31 41 40 38 40 39 44 47 49
17 23 23 24 26 26 27 27 28 31 35 41 45 50 50 49 48 47 47 45 43 42 42 43 42 38 33 32 36 39 38 38
19 25 25 27 28 27 28 29 30 31 31 32 34 39 42 44 45 44 42 41 41 39 37 36 40 39 36 36 33 36 38 38
27 26 26 25 28 30 32 30 29 30 30 30 30 29 30 31 31 33 33 32 30 28 26 32 32 34 35 33 35 39 41 36
27 23 21 24 24 23 22 23 24 24 25 26 24 24 24 24 24 23 21 20 20 25 25 26 30 32 32 30 27 25 23 22

GFSFLT1_850_spd_093.txt.gz
Wind_Speed
9 12 9 9 6 9 7 10 8 12 28 31 37 39 40 40 37 38 34 40 42 42 40 37 35 31 28 23 22 19 17 15
10 11 11 9 11 8 12 14 13 16 25 37 40 37 37 34 32 36 34 34 37 38 34 31 30 30 26 24 23 20 20 19
12 12 13 11 10 12 12 11 19 20 24 30 33 34 39 34 34 35 36 37 34 31 29 30 29 28 24 24 25 24 23 21
16 16 15 16 13 13 13 10 22 24 30 34 36 34 34 35 33 37 38 39 39 34 33 28 26 26 26 28 27 25 25 24
18 16 17 19 16 15 13 11 21 30 29 30 38 41 40 36 36 39 40 39 40 37 27 26 30 27 31 29 29 29 28 28
23 19 16 19 19 18 17 17 22 32 30 32 41 40 39 35 36 39 39 36 37 34 37 34 30 32 33 33 32 31 31 33
24 20 18 21 22 22 22 22 24 34 36 34 38 43 39 38 37 39 42 41 42 38 37 36 36 34 31 31 30 30 33 36
29 28 25 24 27 26 25 27 28 30 34 32 35 36 43 44 42 40 40 37 40 38 38 37 38 36 35 32 30 31 32 33
32 32 29 25 26 27 28 29 31 35 36 35 35 36 42 44 42 41 43 42 42 46 40 37 37 37 36 36 35 35 36 37
33 35 34 28 27 28 28 28 29 31 32 34 37 37 44 45 44 42 42 43 43 50 46 44 40 38 39 39 40 41 42 43
27 34 36 33 28 27 26 25 26 27 29 33 34 36 38 41 40 40 40 42 43 45 46 45 45 44 43 43 44 44 46 46
22 30 34 34 31 28 28 29 27 29 30 31 33 34 34 34 34 35 36 37 38 39 40 41 42 43 43 43 44 46 47 47
16 21 29 33 34 32 32 32 33 33 32 32 33 32 32 33 34 33 33 35 36 35 35 36 38 40 42 43 45 51 55 54
15 17 22 26 31 31 32 34 35 35 35 34 34 35 35 35 36 35 35 35 34 34 36 38 40 43 44 41 44 38 44 47
13 17 19 22 23 23 23 26 30 34 36 37 38 38 39 39 39 38 36 36 37 38 39 39 40 42 39 41 41 42 40 40
12 18 18 20 21 20 19 20 22 24 30 35 39 38 39 39 38 35 34 34 35 35 36 39 37 36 36 40 45 50 39 38
18 17 19 20 20 20 20 22 23 23 23 25 27 30 34 37 36 36 35 34 34 34 32 30 31 31 31 28 34 37 36 39
21 22 23 24 24 22 22 23 20 19 20 19 20 20 20 22 23 24 24 23 21 22 22 25 25 28 32 33 30 32 34 33
32 28 23 22 22 22 20 19 18 17 17 16 15 14 15 15 14 15 15 16 17 19 24 28 27 27 27 26 26 24 24 25

GFSFLT1_850_spd_096.txt.gz
Wind_Speed
10 7 7 10 10 9 11 7 6 6 11 16 33 54 52 54 53 54 46 44 44 47 42 37 34 31 29 24 23 22 17 13
10 8 7 10 10 9 11 6 7 8 10 27 35 44 49 45 52 46 38 44 47 45 41 37 34 31 28 28 24 23 19 18
12 10 8 14 12 11 11 9 10 16 11 24 36 37 37 38 39 35 31 41 45 44 42 38 34 27 28 29 27 21 22 22
16 14 11 15 15 13 15 13 14 17 18 26 29 29 30 33 33 34 34 34 42 44 40 34 32 30 29 27 26 23 23 23
17 17 14 15 18 13 14 14 15 20 23 28 30 32 35 36 33 34 38 38 34 34 37 34 30 30 28 25 24 24 24 25
19 18 15 14 18 18 17 14 16 22 25 26 30 34 39 37 34 35 39 37 41 38 29 27 26 26 23 23 24 32 29 25
19 18 17 16 17 17 18 18 17 22 24 24 27 35 42 38 39 33 36 39 40 44 43 37 32 28 30 29 29 33 33 35
22 23 21 20 20 20 20 20 20 24 27 26 29 31 37 40 36 33 31 39 40 41 40 39 37 40 37 36 33 34 35 35
25 25 23 22 22 22 21 22 24 25 28 26 28 26 35 33 29 30 38 39 40 41 42 40 43 38 39 36 34 33 34 35
25 26 24 23 23 24 24 23 24 26 28 31 31 27 35 35 27 29 33 31 33 39 37 36 34 36 35 35 33 31 30 35
25 27 27 24 23 23 24 24 25 25 27 30 33 31 32 29 30 31 32 29 28 26 28 31 32 34 34 32 32 32 31 34
23 26 26 25 24 25 27 28 27 27 27 28 29 29 30 33 33 36 37 37 34 32 32 31 32 35 35 36 37 38 36 40
18 22 25 27 27 27 28 31 32 30 28 28 29 28 30 32 36 35 36 37 37 37 35 33 33 34 37 38 44 48 47 46
15 20 24 27 28 27 28 28 31 29 28 29 29 30 31 32 34 36 31 32 31 29 30 31 31 32 33 37 43 42 42 49
13 17 21 23 26 27 27 27 27 28 29 29 29 29 29 28 29 30 31 30 30 31 32 32 31 30 29 30 35 39 42 42
11 16 20 21 22 23 25 24 26 28 29 29 28 28 27 27 27 28 28 28 29 28 26 27 27 28 31 34 36 35 34 33
12 13 17 20 22 22 23 23 23 24 25 24 23 23 24 25 25 25 26 27 28 28 27 26 29 29 27 24 25 30 32 33
16 15 16 17 19 20 20 21 21 21 20 19 19 19 20 21 20 20 21 23 21 21 21 22 25 26 26 27 28 28 26 27
16 20 17 17 15 17 17 18 18 18 16 15 14 14 13 12 13 14 16 20 20 23 23 23 24 24 23 23 22 21 20 20

GFSFLT1_850_spd_099.txt.gz
Wind_Speed
13 11 10 9 12 11 11 12 13 11 11 14 19 30 39 45 52 52 49 47 43 43 34 30 27 25 25 24 23 19 17 16
12 13 11 11 13 12 12 12 11 7 11 14 18 30 36 50 55 53 51 48 49 39 34 31 30 26 29 25 23 21 16 15
14 13 12 13 14 14 15 13 10 9 9 14 12 20 42 49 50 54 47 51 48 43 37 37 34 26 23 23 22 19 16 17
17 16 15 14 16 17 18 16 14 12 11 16 20 33 42 46 45 46 48 53 51 46 39 37 34 25 27 28 25 20 16 17
18 19 17 16 16 16 15 17 16 15 14 21 21 19 35 40 46 42 45 43 44 45 34 36 34 29 26 26 23 22 17 12
19 20 17 17 17 16 16 17 15 19 22 22 25 22 19 22 24 28 33 38 44 43 38 37 33 31 23 24 24 24 21 18
19 19 17 17 19 18 18 17 15 20 24 27 29 27 26 28 30 36 38 35 43 43 41 41 37 32 28 25 22 22 23 24
21 22 20 19 20 20 20 18 16 21 23 25 25 27 26 32 30 34 36 39 37 41 39 37 33 31 27 26 23 27 30 29
23 24 22 20 21 20 20 21 18 23 23 18 21 23 27 32 34 31 31 35 38 39 36 36 40 36 32 27 35 38 33 31
22 25 23 22 22 23 21 21 19 22 27 22 22 22 24 34 36 31 29 28 33 38 40 42 42 43 39 44 37 39 42 41
21 26 25 23 22 21 21 21 22 22 24 25 22 24 23 23 27 28 26 27 29 30 37 39 39 37 36 37 42 39 38 37
21 26 26 24 22 22 22 21 22 23 24 24 25 25 23 25 27 27 29 27 28 27 28 33 32 32 31 31 34 37 34 33
20 25 27 26 25 24 24 24 23 23 22 24 24 25 25 26 27 31 29 30 29 28 31 28 29 31 31 34 36 37 35 38
17 23 27 27 27 25 25 24 25 23 23 23 23 24 24 26 26 28 28 29 28 28 28 30 31 32 34 34 36 38 40 38
14 19 24 26 27 26 26 25 26 26 25 25 25 24 25 24 24 25 28 27 27 28 29 28 29 27 27 28 29 32 34 35
11 17 21 24 26 25 25 25 24 26 26 26 26 24 23 23 23 23 23 25 25 23 23 23 23 24 25 28 29 32 35 37
12 14 19 21 22 23 24 25 26 25 26 26 24 23 22 23 22 22 21 21 21 20 20 20 20 26 31 31 31 34 37 37
18 14 15 18 20 20 22 23 24 24 24 23 23 22 22 21 19 19 19 18 17 23 26 26 25 27 29 32 33 31 29 28
14 12 8 12 15 18 19 20 21 22 22 21 20 20 19 18 19 23 24 24 25 25 26 27 29 28 27 27 25 23 19 16

GFSFLT1_850_spd_105.txt.gz
Wind_Speed
31 29 29 26 23 18 11 15 20 19 16 16 17 18 21 32 39 47 45 45 42 41 40 40 42 41 38 35 29 31 26 23
36 32 29 26 21 16 12 17 19 20 19 21 22 24 27 29 43 40 47 44 47 43 40 39 42 40 38 39 33 31 26 25
37 33 29 24 16 13 14 19 20 20 20 20 22 27 29 34 40 46 49 49 47 46 44 43 41 41 40 39 38 32 28 26
38 35 30 23 18 14 17 20 19 19 18 18 18 22 26 35 40 50 54 48 47 51 47 45 43 43 42 39 37 34 31 29
42 38 31 24 19 14 18 21 19 18 17 16 13 15 20 29 46 46 51 53 52 52 45 43 42 44 41 37 31 30 30 32
44 39 31 22 19 16 19 22 20 18 17 13 13 11 14 18 31 39 50 51 53 58 50 46 43 40 40 34 33 30 30 30
44 38 28 23 20 16 20 22 21 20 18 17 14 13 17 14 29 36 36 53 54 56 55 50 48 40 37 34 33 34 34 24
41 37 31 26 23 18 22 23 21 20 20 19 18 10 19 15 26 38 42 49 55 60 58 53 47 39 39 36 33 33 26 25
41 37 33 27 24 21 23 25 22 22 22 20 21 16 12 17 29 40 44 44 52 52 56 54 45 40 41 38 34 31 29 29
41 37 33 27 25 23 24 25 24 23 24 24 20 22 19 18 20 21 28 35 38 49 52 44 44 45 42 34 33 33 37 29
41 38 34 28 23 23 24 26 25 23 25 28 25 23 20 18 19 21 23 28 33 36 40 43 42 42 39 36 35 32 32 39
42 38 35 32 25 24 25 25 26 23 26 28 27 25 23 22 23 23 25 28 33 38 42 42 43 40 38 33 31 32 37 33
38 40 38 36 31 27 27 26 25 23 26 29 27 25 24 23 24 24 26 25 25 27 32 34 36 35 36 34 35 38 38 38
20 39 41 38 34 29 28 27 27 24 26 30 28 27 27 25 23 26 26 26 26 27 29 31 32 35 37 38 38 37 37 38
18 24 41 40 36 32 28 28 30 27 25 30 31 30 28 25 23 24 31 28 25 24 24 25 25 27 32 35 36 35 33 32
17 12 11 40 38 35 29 28 33 31 29 28 30 29 30 26 25 24 25 27 25 24 23 22 22 24 26 25 26 27 30 33
21 11 10 16 39 38 33 31 33 35 33 29 27 27 32 32 28 27 28 24 24 27 29 31 30 31 33 32 31 32 34 34
28 14 16 24 36 40 37 34 31 35 34 32 29 26 27 30 28 25 26 32 32 31 31 32 33 33 34 32 31 29 26 25
27 26 14 20 24 36 39 34 32 34 37 32 29 28 27 26 30 33 32 33 33 32 31 31 31 30 27 25 25 26 29 25

GFSFLT1_850_spd_111.txt.gz
Wind_Speed
36 35 28 42 43 36 35 26 20 17 16 17 15 17 15 15 12 30 33 36 48 44 41 41 39 42 45 48 45 43 39 33
35 33 26 37 41 38 33 26 22 19 20 22 19 17 14 13 11 28 34 46 39 40 38 39 41 46 47 46 45 46 38 32
31 33 31 34 42 39 33 26 22 20 20 22 20 17 17 18 20 31 38 40 42 45 42 43 44 46 46 48 48 48 39 35
30 30 31 38 45 42 34 27 22 21 23 23 21 19 20 23 25 37 38 40 37 41 43 44 45 48 49 49 50 51 46 37
20 25 31 39 47 39 32 26 23 23 27 26 23 25 25 30 31 33 40 40 42 42 42 44 47 50 51 51 49 49 46 42
20 23 29 41 46 41 34 27 25 27 30 28 26 27 26 27 30 36 43 42 44 45 45 46 48 52 53 52 52 49 44 42
25 27 29 39 46 40 34 29 27 30 29 29 28 28 29 30 28 35 42 45 47 48 49 50 46 50 54 53 53 48 43 42
26 31 33 39 49 43 36 31 31 31 31 29 26 24 25 28 34 37 35 44 44 54 55 52 50 49 52 52 51 48 43 42
43 29 36 41 49 46 39 33 33 32 30 28 25 23 21 20 25 32 36 45 39 54 58 55 53 52 51 49 47 49 47 44
42 21 34 39 49 47 42 35 33 31 30 26 25 21 18 17 18 20 21 30 38 38 56 53 54 52 49 47 46 46 46 45
41 19 23 33 44 45 40 33 30 30 28 25 24 22 18 13 12 13 21 22 28 37 49 53 54 50 49 45 45 40 40 40
41 33 22 28 37 40 37 33 30 28 27 25 25 23 20 14 11 9 14 23 27 38 45 43 51 45 45 43 39 41 39 31
41 43 22 23 26 31 32 33 30 28 25 25 25 23 23 17 13 9 7 12 18 23 34 39 41 46 41 42 40 40 25 25
40 34 17 17 22 29 29 32 32 29 26 26 26 25 24 21 16 12 12 10 14 21 30 35 38 41 44 38 32 32 33 28
26 14 6 10 15 26 30 32 33 32 27 26 28 29 24 22 19 15 15 15 15 17 18 24 28 36 28 32 29 25 24 23
27 16 6 8 13 21 26 29 32 32 29 26 27 29 26 23 20 17 17 16 15 15 16 18 22 24 26 25 23 23 24 26
20 22 14 9 6 17 20 27 29 30 29 25 25 27 25 23 21 19 20 19 17 17 19 20 21 23 23 24 23 26 28 28
21 25 24 13 17 14 17 20 27 26 28 25 22 24 24 23 22 20 21 22 22 21 19 19 20 19 20 21 22 24 28 30
15 19 19 17 14 17 22 22 29 25 24 24 24 20 21 22 23 24 24 24 24 23 22 21 21 20 19 19 21 24 26 29

GFSFLT1_850_spd_114.txt.gz
Wind_Speed
37 30 34 28 30 27 33 40 35 31 24 24 21 22 24 24 28 26 28 35 43 57 49 55 50 44 41 46 46 39 33 29
40 35 35 23 27 20 27 36 35 32 29 24 23 24 25 25 22 21 19 26 46 51 53 48 53 45 42 46 47 42 36 31
38 33 24 21 23 21 26 34 36 33 27 23 23 23 22 20 17 16 15 20 34 53 51 50 52 45 42 46 50 46 39 33
34 30 25 21 23 24 29 37 35 32 24 23 22 20 19 19 16 15 20 26 31 37 42 43 47 45 42 45 49 49 45 37
28 31 30 24 23 23 31 35 35 29 25 26 25 26 26 24 22 18 23 28 35 30 34 34 39 39 41 45 49 49 48 43
26 29 28 27 23 24 30 37 33 28 28 28 25 25 23 23 22 24 25 28 32 34 33 35 34 38 39 44 49 51 49 47
25 30 23 20 25 22 31 39 34 29 30 29 26 25 25 23 26 28 31 32 33 33 37 36 37 36 40 44 48 50 49 49
37 29 32 22 25 25 33 41 36 32 31 30 28 26 24 25 25 27 30 35 36 36 41 41 44 41 41 44 49 50 49 50
33 35 34 26 23 26 33 42 37 33 32 29 28 27 27 28 28 27 30 34 39 40 44 42 43 43 41 45 47 48 47 46
30 34 36 32 26 26 32 42 39 33 32 28 27 26 25 25 26 29 33 34 36 44 44 44 47 46 45 43 46 49 46 45
29 33 42 38 27 23 26 38 37 31 31 27 28 26 24 21 19 19 23 28 33 39 43 44 54 52 52 50 47 49 48 49
31 36 44 41 22 22 24 35 33 27 28 25 28 26 23 19 16 15 20 22 22 23 33 46 52 59 54 51 45 45 51 50
32 39 45 29 20 21 24 33 30 27 26 23 26 25 23 20 15 11 11 14 14 13 23 29 41 49 53 52 46 47 41 38
33 41 40 21 18 20 23 27 28 26 23 23 23 24 24 21 17 12 9 8 15 14 14 30 35 30 39 43 46 34 38 37
26 35 37 23 18 19 22 25 24 25 23 24 23 23 24 23 18 14 10 8 11 12 18 20 28 34 37 37 30 32 39 37
28 32 38 31 17 16 17 18 21 25 24 23 22 22 23 21 20 16 13 11 9 9 13 21 24 30 35 37 28 27 27 25
14 24 31 29 22 14 15 13 18 22 24 23 22 21 23 21 20 17 15 14 12 11 14 14 18 23 21 20 19 22 23 21
14 17 22 27 25 16 9 14 14 19 22 22 23 22 22 23 21 17 15 17 16 15 14 14 16 15 18 19 17 17 19 19
16 22 21 20 24 13 12 12 20 19 21 22 21 20 20 21 20 19 17 18 18 16 15 14 14 15 15 16 16 18 19 22

GFSFLT1_850_spd_117.txt.gz
Wind_Speed
23 26 24 26 28 28 28 29 27 29 36 36 34 32 29 26 24 26 27 32 34 37 42 56 48 48 46 46 45 42 36 33
23 25 25 25 25 23 25 25 28 30 37 38 34 33 28 26 27 27 29 30 33 42 47 45 49 51 48 46 47 44 38 34
22 27 27 27 23 23 20 21 26 29 37 37 33 27 26 24 26 26 26 28 31 35 47 56 51 53 50 47 49 47 40 38
23 29 27 26 24 20 16 19 24 31 36 33 29 24 21 22 24 24 24 24 22 28 42 53 48 49 52 46 52 52 47 40
23 27 27 27 23 21 16 17 22 33 35 32 28 24 23 26 24 22 17 20 19 23 38 51 42 49 50 47 50 53 49 45
23 30 27 28 21 18 15 15 23 35 35 30 26 21 20 22 20 20 17 20 21 19 32 37 44 47 50 46 49 52 50 47
27 26 29 29 22 16 14 16 25 34 34 31 26 22 22 23 20 22 20 22 26 27 27 34 42 47 48 44 46 50 51 47
28 25 29 32 27 16 15 18 26 34 34 31 25 22 22 22 20 24 22 25 26 32 28 28 25 37 44 42 43 47 50 49
26 24 26 29 29 21 14 20 26 32 34 30 25 23 24 22 23 23 28 24 31 25 31 33 34 31 31 34 40 44 46 48
25 27 24 32 30 23 15 19 26 30 33 29 26 25 24 25 24 22 24 27 26 28 31 34 41 44 42 40 38 42 45 47
21 24 26 30 29 19 12 15 23 28 32 28 26 25 24 24 23 25 28 26 27 30 32 33 40 44 49 52 45 42 44 46
20 22 29 33 27 23 14 13 21 27 30 28 25 23 23 22 22 21 21 25 28 33 32 34 39 44 46 48 45 44 47 47
18 19 29 36 37 25 24 15 21 29 29 28 26 24 23 22 21 20 18 20 22 23 27 32 39 40 51 47 44 47 45 49
15 24 28 28 39 34 23 20 19 28 27 27 25 24 24 22 20 17 13 11 15 17 12 14 22 29 40 48 47 54 50 51
13 20 28 25 35 33 17 20 23 27 27 25 23 24 24 22 20 16 10 8 9 10 10 12 19 26 42 45 47 51 44 41
11 16 24 30 33 32 18 13 22 24 25 28 22 20 23 23 22 16 12 9 6 6 6 6 10 17 26 27 34 40 34 35
9 12 19 30 31 30 23 7 22 19 25 28 22 20 21 23 22 19 14 11 8 8 7 6 6 11 22 28 33 33 26 36
11 13 18 25 28 29 26 13 10 18 23 28 25 21 22 23 21 20 17 14 12 11 10 9 8 13 14 19 28 29 27 27
15 17 21 20 22 23 27 15 7 21 23 26 27 23 23 25 23 24 19 18 16 14 14 12 11 11 11 15 17 16 20 20

GFSFLT1_850_spd_120.txt.gz
Wind_Speed
10 11 12 13 15 19 26 29 31 28 25 29 34 39 40 36 35 32 30 31 33 35 36 40 45 42 45 42 37 31 29 28
9 10 11 13 15 15 19 25 27 24 27 33 40 43 40 38 35 28 30 30 29 31 36 37 43 47 49 47 43 36 31 31
9 12 15 15 18 16 14 15 18 22 26 34 36 38 37 35 31 27 28 29 28 30 37 37 47 51 55 51 49 39 34 34
9 14 15 15 17 16 13 11 16 19 22 27 27 33 34 32 30 27 28 27 28 33 36 40 45 55 56 55 53 45 37 36
8 13 15 16 18 16 9 9 14 17 24 28 31 32 35 32 26 25 26 27 28 31 35 37 47 59 55 58 54 48 41 40
9 12 14 15 19 19 10 8 12 16 25 25 26 23 19 19 22 19 24 25 24 24 29 30 39 53 51 52 56 47 45 42
10 13 14 16 17 19 16 9 11 17 24 27 23 20 18 16 18 19 23 21 17 18 14 26 36 52 49 53 54 50 42 40
13 16 18 18 20 18 18 13 12 18 26 31 26 22 18 18 17 19 19 20 17 20 19 21 38 44 48 49 54 50 47 41
13 16 17 18 20 21 17 14 14 18 22 30 31 26 21 18 18 18 20 22 20 20 22 23 35 41 39 49 50 46 48 46
13 14 15 19 21 21 18 11 13 18 20 29 32 27 20 18 18 19 18 18 20 22 25 28 23 29 32 43 45 46 46 46
13 13 14 18 21 21 12 11 14 17 21 28 33 28 22 21 21 21 21 19 20 22 29 28 30 28 30 41 42 42 43 44
11 11 15 18 18 18 18 12 16 15 21 25 30 26 22 22 26 23 22 21 20 21 27 26 34 34 37 43 44 39 42 44
10 10 13 17 17 18 19 16 16 17 19 21 27 24 21 21 24 23 23 20 20 23 27 27 29 31 35 44 45 45 45 41
12 12 12 13 14 18 23 20 17 21 20 22 27 25 21 21 21 22 20 17 19 21 24 25 27 28 33 41 46 49 54 53
12 12 13 13 16 22 26 24 19 21 23 25 28 24 22 21 20 20 17 14 12 14 17 17 17 18 20 35 52 56 53 53
11 10 13 15 16 21 28 27 22 14 25 27 28 24 23 21 22 20 17 13 10 12 12 12 11 10 11 24 46 47 43 47
10 10 13 15 19 21 21 34 31 12 28 29 25 23 24 23 24 21 18 15 11 11 9 8 9 5 8 18 33 41 40 41
10 13 14 17 18 20 19 31 30 16 21 27 29 22 22 24 26 24 21 17 14 13 12 8 7 6 3 17 20 27 35 33
9 12 15 16 17 18 19 18 29 23 19 27 32 26 23 23 27 27 23 19 17 15 14 12 10 9 6 8 17 24 30 30

GFSFLT1_850_spd_123.txt.gz
Wind_Speed
15 12 10 11 14 17 20 23 24 26 26 26 27 31 30 40 42 29 28 29 35 34 34 34 34 43 37 37 33 29 27 28
16 10 10 10 12 14 18 20 24 26 26 27 31 33 37 34 39 35 31 32 30 32 32 34 35 39 39 39 43 36 32 31
11 7 8 9 10 12 15 18 18 21 25 26 28 35 41 37 37 36 34 31 31 27 33 36 35 33 37 39 39 43 37 35
7 7 6 6 7 9 11 13 15 18 21 23 30 33 35 35 39 38 35 34 29 26 28 33 40 37 46 40 42 50 42 40
5 4 5 6 8 10 9 9 12 16 19 23 30 33 34 34 36 36 33 29 25 27 27 31 37 40 40 42 45 50 44 41
2 3 5 6 9 10 10 7 9 13 16 22 23 30 24 19 22 25 34 28 25 25 28 32 35 43 36 54 48 54 50 44
1 3 6 7 10 12 11 10 8 15 15 26 23 31 21 24 22 26 22 24 27 29 29 31 32 37 37 55 47 59 59 45
1 4 7 9 10 12 12 11 9 10 14 19 27 26 25 22 22 19 20 26 28 29 28 26 24 26 37 47 49 63 58 47
1 4 7 10 11 13 13 12 10 10 11 17 27 25 23 20 19 20 20 22 22 21 21 22 15 16 26 45 52 57 62 50
3 5 7 9 13 15 15 11 9 13 14 14 27 28 23 21 17 21 19 20 19 20 19 19 17 14 24 43 50 58 54 57
5 6 7 11 14 15 14 13 11 11 13 15 20 25 29 19 18 21 21 18 18 17 19 18 18 17 21 38 45 45 56 50
9 9 9 10 12 14 15 15 15 13 11 14 18 23 26 25 21 20 21 18 19 19 18 16 18 21 23 32 42 43 47 47
13 11 11 10 12 14 16 17 17 17 14 12 19 23 27 29 27 23 19 19 19 20 17 17 23 20 28 29 33 46 53 44
15 14 13 12 11 14 14 15 19 19 16 13 17 23 26 28 26 23 24 23 19 16 19 22 22 25 27 34 33 43 49 51
16 15 14 12 10 13 15 16 20 23 16 13 15 22 27 28 25 23 24 22 22 20 21 20 20 19 22 28 34 40 46 50
16 12 10 12 13 16 17 19 18 20 20 17 15 21 26 27 25 24 25 22 20 19 20 19 20 22 23 23 24 35 48 51
13 9 13 15 15 16 18 20 20 18 22 18 21 20 28 26 25 25 22 21 19 16 17 19 19 19 21 23 16 33 46 49
11 12 13 14 15 16 17 20 21 19 19 21 22 23 27 26 26 26 25 23 19 17 17 15 15 14 13 15 13 15 39 45
10 11 14 14 15 16 20 20 19 19 19 25 20 24 26 25 28 29 28 24 21 19 17 13 12 12 9 10 13 16 24 32

GFSFLT1_850_spd_126.txt.gz
Wind_Speed
26 23 17 18 15 14 16 18 21 15 24 29 29 30 29 30 35 33 39 35 34 32 32 31 31 28 30 31 26 29 24 36
20 16 17 10 10 12 17 23 25 28 26 28 32 32 34 34 33 38 28 31 31 33 34 33 31 31 29 35 26 30 30 26
23 20 12 6 8 10 16 18 21 25 26 31 32 32 31 37 34 28 37 29 29 29 35 35 32 33 33 30 36 34 36 33
16 13 5 6 8 10 11 15 18 21 23 23 27 29 32 34 34 30 31 39 35 32 33 32 33 35 36 34 36 40 41 41
12 9 7 6 9 5 11 10 11 14 20 23 29 35 36 39 37 31 31 35 30 30 29 30 32 36 38 40 37 36 41 47
8 6 3 4 4 8 7 11 6 11 15 24 22 32 34 37 33 32 34 34 36 34 30 28 31 35 32 36 36 40 40 51
7 6 4 3 2 4 6 11 13 14 21 21 19 28 25 27 24 27 30 33 29 29 26 27 29 31 34 38 38 45 46 52
7 6 3 2 4 8 10 7 12 18 17 13 24 24 22 25 24 25 24 23 30 30 28 31 31 31 32 34 41 50 50 49
8 5 1 2 4 8 11 12 7 12 16 13 17 26 24 30 22 27 26 26 26 28 30 31 32 31 32 32 42 46 47 53
8 3 3 2 6 10 11 12 10 8 17 14 15 22 29 29 23 22 21 22 20 21 26 32 30 28 25 24 30 37 50 58
4 2 2 3 6 9 15 14 12 13 11 15 14 20 31 29 26 23 20 24 21 22 20 24 24 24 20 19 27 37 49 44
0 2 5 6 6 9 12 14 17 16 17 16 16 17 26 31 26 23 22 22 24 21 20 21 21 19 21 19 30 36 41 46
3 6 7 8 9 9 8 11 14 20 19 18 18 19 19 29 32 26 25 24 24 23 21 19 19 18 23 22 28 34 39 46
7 9 12 7 9 4 7 15 17 20 23 20 17 19 21 26 30 29 24 25 23 24 22 22 20 21 20 22 26 27 41 42
9 12 11 5 8 9 13 17 25 22 23 21 15 19 21 24 26 30 33 27 24 22 21 21 23 23 20 20 27 29 32 39
12 15 8 10 11 12 16 20 24 28 22 20 17 19 19 21 25 29 30 26 24 25 22 19 18 18 23 25 25 29 34 38
11 11 12 13 16 18 19 23 27 25 25 20 20 16 18 19 22 29 26 24 24 25 27 26 27 26 25 23 23 26 30 35
8 8 9 11 15 16 22 26 25 25 24 20 20 17 17 21 22 29 26 26 25 26 25 23 23 23 24 27 26 26 27 37
13 12 12 12 14 20 25 23 24 24 24 23 18 18 15 20 23 27 29 28 28 25 23 24 23 21 20 22 25 27 21 27

GFSFLT1_850_spd_129.txt.gz
Wind_Speed
38 29 25 24 25 20 20 24 23 28 23 25 26 25 25 24 31 27 31 33 31 32 31 31 31 29 28 28 32 30 25 26
22 23 26 22 22 19 16 15 12 13 17 29 29 30 31 30 28 35 27 32 34 33 33 33 35 34 27 28 31 31 25 26
18 20 28 21 18 17 10 11 13 11 13 18 23 29 34 33 31 29 36 32 33 36 35 36 37 33 29 29 31 35 29 30
15 21 23 19 15 12 12 17 22 22 22 21 24 27 30 32 35 31 29 37 35 33 35 36 35 36 31 29 32 37 32 38
21 17 12 13 10 5 9 12 18 19 18 21 27 28 33 36 37 29 26 28 39 35 34 34 37 38 34 32 30 37 35 40
17 22 21 14 10 6 3 10 8 15 16 15 24 29 27 35 36 34 28 26 30 39 36 36 36 35 34 32 32 37 40 42
23 22 16 16 9 5 5 8 8 11 13 17 21 24 24 27 30 30 32 30 34 36 36 33 33 33 34 31 35 37 40 44
22 22 19 12 8 7 6 9 11 8 12 17 17 25 20 23 28 26 28 31 35 39 40 37 35 34 31 33 33 35 44 43
25 20 16 14 9 4 4 9 7 6 9 15 20 14 22 23 24 25 26 25 27 33 36 35 33 30 30 30 29 32 38 46
21 17 13 11 6 2 2 10 11 12 13 13 16 14 17 23 26 28 29 26 22 21 33 33 30 30 31 30 32 32 40 42
18 17 15 12 7 5 6 11 14 15 16 14 19 19 16 19 28 25 30 24 25 24 24 30 32 33 33 32 32 34 39 44
12 8 7 5 4 6 4 7 12 14 17 20 18 18 18 19 20 28 30 25 26 26 25 24 26 33 33 33 31 30 32 33
10 5 5 12 10 8 2 4 10 14 18 22 23 20 18 19 21 28 24 27 28 29 26 25 23 26 26 28 31 26 27 28
5 8 11 21 13 9 8 10 13 19 22 24 23 22 18 20 21 25 28 26 29 28 28 24 22 23 25 26 27 26 26 27
14 20 17 12 9 8 7 12 18 23 24 24 22 22 21 21 22 25 26 28 31 30 27 26 23 24 25 24 26 25 25 26
21 20 15 12 10 10 15 18 23 26 26 26 24 20 24 22 23 22 24 26 31 34 28 24 21 21 25 27 24 24 26 26
28 27 23 18 14 15 20 25 26 29 30 26 25 22 22 24 22 18 22 29 31 27 25 23 24 28 23 23 25 27 25 26
21 22 22 19 19 21 25 30 29 27 29 26 27 26 22 24 22 19 23 28 33 31 27 29 28 25 23 22 23 24 25 26
21 21 22 23 24 25 27 26 26 27 28 27 26 26 24 23 23 21 17 30 35 29 29 29 28 29 26 27 26 28 28 29

GFSFLT1_850_spd_135.txt.gz
Wind_Speed
24 24 29 30 34 33 42 42 38 39 42 41 37 31 23 23 22 23 26 29 30 30 30 28 27 29 29 29 29 30 26 28
28 29 33 33 34 28 40 43 39 37 41 42 36 31 28 27 25 23 22 24 25 27 28 27 26 30 32 30 30 30 29 29
27 29 28 28 26 33 36 43 38 37 39 40 35 34 32 28 27 25 25 24 25 27 30 32 32 35 36 35 29 29 32 31
27 30 23 21 18 23 34 37 34 34 31 30 30 29 28 29 30 30 30 30 30 29 32 34 35 36 38 36 29 29 33 35
28 26 19 14 20 20 23 28 28 24 23 24 24 24 26 29 29 26 27 33 34 34 36 34 32 33 35 34 34 32 30 36
30 27 22 28 26 23 20 20 21 19 20 21 19 17 19 23 24 26 25 25 31 34 36 36 36 33 33 34 37 37 36 33
22 25 28 30 31 26 19 18 18 18 17 19 15 17 15 16 19 24 27 26 26 30 33 33 34 37 35 35 37 39 37 35
29 23 32 30 28 28 23 15 19 16 11 7 7 5 10 14 17 20 20 21 25 29 30 29 29 32 34 35 36 37 36 38
29 28 35 33 27 23 23 25 13 7 6 3 1 5 9 12 15 17 18 21 20 21 26 30 32 31 30 32 34 35 35 36
6 28 37 29 24 21 18 19 18 11 9 9 6 4 6 10 12 15 16 18 21 22 20 24 28 30 33 35 37 38 40 35
15 13 25 27 25 22 21 22 18 13 8 7 5 6 8 9 10 14 17 18 21 24 22 24 27 28 33 37 35 37 34 35
20 16 23 26 25 24 21 20 13 5 4 6 6 9 8 6 7 12 17 18 18 19 26 23 26 29 27 33 36 38 38 36
19 27 33 28 25 22 20 16 7 9 12 11 11 9 8 10 11 11 14 17 16 18 22 21 25 27 24 28 36 38 35 34
25 30 28 25 23 19 17 14 13 11 11 14 15 15 16 15 13 14 14 17 19 17 19 26 19 30 29 25 26 32 34 35
27 26 28 23 22 23 21 19 18 16 17 18 17 17 19 19 18 17 16 17 19 22 21 22 25 26 34 30 27 29 33 36
22 23 25 26 27 28 26 23 23 24 22 21 21 21 20 21 21 20 19 19 20 21 21 20 24 26 36 35 31 29 30 35
27 26 24 27 27 27 28 27 27 27 24 22 21 20 22 21 21 22 22 21 21 20 21 19 24 29 31 37 35 30 26 29
19 20 21 26 28 29 30 29 27 26 26 26 24 23 21 22 22 22 23 22 22 21 20 25 24 29 32 34 40 33 27 28
21 23 24 27 28 28 28 28 28 28 26 27 26 25 24 24 23 23 23 22 22 23 22 20 23 27 27 28 37 33 28 26